| time (UTC) | temp F | wind direction | speed MPH | gust MPH | rain 1hr in | rain 24hr in | rain mn in | humidity % | barometer mb |
| 20260507130613 | 45 | 234 | 1.0 | 6.0 | 0.00 | 0.65 | 0.00 | 84 | 1006.2 |
| 20260507130511 | 45 | 240 | 1.0 | 6.0 | 0.00 | 0.65 | 0.00 | 84 | 1006.2 |
| 20260507130411 | 45 | 232 | 1.0 | 6.0 | 0.00 | 0.65 | 0.00 | 84 | 1006.2 |
| 20260507130309 | 45 | 284 | 1.0 | 6.0 | 0.00 | 0.65 | 0.00 | 84 | 1006.2 |
| 20260507130103 | 45 | 281 | 0.0 | 6.0 | 0.00 | 0.65 | 0.00 | 84 | 1006.3 |
| 20260507130004 | 45 | 182 | 0.0 | 5.0 | 0.00 | 0.65 | 0.00 | 85 | 1006.4 |
| 20260507125905 | 45 | 184 | 0.0 | 3.0 | 0.00 | 0.65 | 0.00 | 84 | 1006.4 |
| 20260507125803 | 45 | 184 | 1.0 | 3.0 | 0.00 | 0.65 | 0.00 | 84 | 1006.4 |
| 20260507125556 | 45 | 296 | 1.0 | 6.0 | 0.00 | 0.65 | 0.00 | 86 | 1006.4 |
| 20260507125454 | 45 | 338 | 1.0 | 6.0 | 0.00 | 0.65 | 0.00 | 86 | 1006.3 |
| 20260507125354 | 45 | 338 | 2.0 | 6.0 | 0.00 | 0.65 | 0.00 | 86 | 1006.3 |
| 20260507125320 | 45 | 348 | 2.0 | 6.0 | 0.00 | 0.65 | 0.00 | 86 | 1006.3 |
| 20260507125259 | 45 | 121 | 2.0 | 8.0 | 0.00 | 0.65 | 0.00 | 86 | 1006.3 |
| 20260507125050 | 45 | 156 | 2.0 | 8.0 | 0.00 | 0.65 | 0.00 | 87 | 1006.3 |
| 20260507124951 | 45 | 153 | 2.0 | 8.0 | 0.00 | 0.65 | 0.00 | 86 | 1006.3 |
| 20260507124850 | 45 | 153 | 2.0 | 8.0 | 0.00 | 0.65 | 0.00 | 86 | 1006.3 |
| 20260507124751 | 45 | 153 | 2.0 | 8.0 | 0.00 | 0.65 | 0.00 | 87 | 1006.2 |
| 20260507124535 | 44 | 142 | 1.0 | 8.0 | 0.00 | 0.65 | 0.00 | 87 | 1006.2 |
| 20260507124433 | 44 | 140 | 1.0 | 8.0 | 0.00 | 0.65 | 0.00 | 88 | 1006.1 |
| 20260507124334 | 44 | 159 | 1.0 | 8.0 | 0.00 | 0.65 | 0.00 | 87 | 1006.1 |
| 20260507124234 | 44 | 134 | 1.0 | 8.0 | 0.00 | 0.65 | 0.00 | 87 | 1006.0 |
| 20260507124035 | 44 | 96 | 0.0 | 3.0 | 0.00 | 0.65 | 0.00 | 86 | 1006.0 |
| 20260507123932 | 44 | 96 | 0.0 | 3.0 | 0.00 | 0.65 | 0.00 | 86 | 1006.0 |
| 20260507123833 | 44 | 96 | 0.0 | 3.0 | 0.00 | 0.65 | 0.00 | 85 | 1005.9 |
| 20260507123731 | 44 | 96 | 1.0 | 3.0 | 0.00 | 0.65 | 0.00 | 86 | 1005.9 |
| 20260507123525 | 44 | 96 | 1.0 | 3.0 | 0.00 | 0.65 | 0.00 | 86 | 1005.9 |
| 20260507123422 | 44 | 96 | 1.0 | 6.0 | 0.00 | 0.65 | 0.00 | 86 | 1006.0 |
| 20260507123323 | 44 | 96 | 1.0 | 6.0 | 0.00 | 0.65 | 0.00 | 86 | 1006.0 |
| 20260507123249 | 44 | 107 | 1.0 | 6.0 | 0.00 | 0.65 | 0.00 | 86 | 1005.9 |
| 20260507123226 | 44 | 119 | 1.0 | 6.0 | 0.00 | 0.65 | 0.00 | 85 | 1005.9 |
| 20260507123016 | 44 | 119 | 1.0 | 6.0 | 0.00 | 0.65 | 0.00 | 86 | 1005.9 |
| 20260507122915 | 44 | 115 | 1.0 | 6.0 | 0.00 | 0.65 | 0.00 | 87 | 1005.9 |
| 20260507122816 | 44 | 122 | 1.0 | 6.0 | 0.00 | 0.65 | 0.00 | 87 | 1005.9 |
| 20260507122737 | 44 | 121 | 1.0 | 6.0 | 0.00 | 0.65 | 0.00 | 86 | 1005.9 |
| 20260507122716 | 44 | 126 | 1.0 | 6.0 | 0.00 | 0.65 | 0.00 | 85 | 1006.0 |
| 20260507122507 | 44 | 125 | 1.0 | 6.0 | 0.00 | 0.65 | 0.00 | 86 | 1005.9 |
| 20260507122405 | 45 | 123 | 1.0 | 5.0 | 0.00 | 0.65 | 0.00 | 86 | 1006.0 |
| 20260507122307 | 45 | 74 | 1.0 | 8.0 | 0.00 | 0.65 | 0.00 | 86 | 1005.9 |
| 20260507122206 | 45 | 71 | 2.0 | 8.0 | 0.00 | 0.65 | 0.00 | 85 | 1006.0 |
| 20260507122005 | 45 | 73 | 2.0 | 8.0 | 0.00 | 0.65 | 0.00 | 85 | 1005.9 |
| 20260507121905 | 45 | 67 | 2.0 | 8.0 | 0.00 | 0.65 | 0.00 | 86 | 1005.9 |
| 20260507121804 | 45 | 40 | 2.0 | 8.0 | 0.00 | 0.65 | 0.00 | 86 | 1006.0 |
| 20260507121726 | 45 | 39 | 2.0 | 8.0 | 0.00 | 0.65 | 0.00 | 85 | 1005.9 |
| 20260507121600 | 45 | 40 | 2.0 | 8.0 | 0.00 | 0.65 | 0.00 | 85 | 1006.0 |
| 20260507121445 | 45 | 50 | 2.0 | 8.0 | 0.00 | 0.65 | 0.00 | 86 | 1005.9 |
| 20260507121347 | 45 | 63 | 2.0 | 8.0 | 0.00 | 0.65 | 0.00 | 85 | 1005.9 |
| 20260507121247 | 45 | 97 | 1.0 | 7.0 | 0.00 | 0.65 | 0.00 | 83 | 1006.0 |
| 20260507121146 | 46 | 76 | 1.0 | 7.0 | 0.00 | 0.65 | 0.00 | 79 | 1006.0 |
| 20260507121046 | 46 | 16 | 1.0 | 7.0 | 0.00 | 0.65 | 0.00 | 81 | 1006.0 |
| 20260507120944 | 46 | 22 | 1.0 | 7.0 | 0.00 | 0.65 | 0.00 | 80 | 1006.0 |
| 20260507120844 | 46 | 90 | 1.0 | 7.0 | 0.00 | 0.65 | 0.00 | 80 | 1006.0 |
| 20260507120744 | 46 | 90 | 1.0 | 7.0 | 0.00 | 0.65 | 0.00 | 81 | 1006.0 |
| 20260507120717 | 46 | 355 | 1.0 | 8.0 | 0.00 | 0.65 | 0.00 | 81 | 1006.0 |
| 20260507120541 | 46 | 355 | 2.0 | 8.0 | 0.00 | 0.65 | 0.00 | 81 | 1006.0 |
| 20260507120435 | 46 | 0 | 2.0 | 8.0 | 0.00 | 0.65 | 0.00 | 81 | 1006.1 |
| 20260507120337 | 46 | 342 | 2.0 | 8.0 | 0.00 | 0.65 | 0.00 | 81 | 1006.0 |
| 20260507120240 | 46 | 0 | 2.0 | 8.0 | 0.00 | 0.65 | 0.00 | 82 | 1006.1 |
| 20260507120218 | 46 | 320 | 2.0 | 8.0 | 0.00 | 0.65 | 0.00 | 83 | 1006.1 |
| 20260507120034 | 46 | 5 | 2.0 | 8.0 | 0.00 | 0.65 | 0.00 | 82 | 1006.1 |
| 20260507115928 | 45 | 303 | 2.0 | 8.0 | 0.00 | 0.65 | 0.00 | 83 | 1006.0 |
| 20260507115827 | 45 | 5 | 2.0 | 8.0 | 0.00 | 0.65 | 0.00 | 81 | 1006.1 |
| 20260507115727 | 45 | 21 | 1.0 | 8.0 | 0.00 | 0.65 | 0.00 | 83 | 1006.1 |
| 20260507115627 | 45 | 355 | 1.0 | 7.0 | 0.00 | 0.65 | 0.00 | 81 | 1006.1 |
| 20260507115525 | 45 | 355 | 2.0 | 7.0 | 0.00 | 0.65 | 0.00 | 81 | 1006.1 |
| 20260507115420 | 45 | 5 | 2.0 | 7.0 | 0.00 | 0.65 | 0.00 | 81 | 1006.2 |
| 20260507115319 | 45 | 336 | 1.0 | 6.0 | 0.00 | 0.65 | 0.00 | 83 | 1006.1 |
| 20260507115219 | 45 | 5 | 1.0 | 6.0 | 0.00 | 0.65 | 0.00 | 82 | 1006.2 |
| 20260507115120 | 45 | 12 | 1.0 | 6.0 | 0.00 | 0.65 | 0.00 | 81 | 1006.2 |
| 20260507115019 | 45 | 21 | 1.0 | 6.0 | 0.00 | 0.65 | 0.00 | 81 | 1006.2 |
| 20260507114913 | 45 | 9 | 1.0 | 6.0 | 0.00 | 0.65 | 0.00 | 82 | 1006.2 |
| 20260507114812 | 45 | 355 | 1.0 | 6.0 | 0.00 | 0.65 | 0.00 | 82 | 1006.3 |
| 20260507114713 | 45 | 36 | 1.0 | 6.0 | 0.00 | 0.65 | 0.00 | 82 | 1006.3 |
| 20260507114513 | 45 | 24 | 0.0 | 5.0 | 0.00 | 0.65 | 0.00 | 84 | 1006.3 |
| 20260507114403 | 45 | 44 | 0.0 | 5.0 | 0.00 | 0.65 | 0.00 | 85 | 1006.3 |
| 20260507114305 | 45 | 319 | 0.0 | 5.0 | 0.00 | 0.65 | 0.00 | 84 | 1006.2 |
| 20260507114230 | 45 | 339 | 0.0 | 5.0 | 0.00 | 0.65 | 0.00 | 84 | 1006.2 |
| 20260507114209 | 45 | 334 | 0.0 | 5.0 | 0.00 | 0.65 | 0.00 | 83 | 1006.2 |
| 20260507114002 | 45 | 334 | 0.0 | 5.0 | 0.00 | 0.65 | 0.00 | 84 | 1006.2 |
| 20260507113903 | 45 | 62 | 0.0 | 4.0 | 0.00 | 0.65 | 0.00 | 83 | 1006.1 |
| 20260507113759 | 45 | 324 | 0.0 | 4.0 | 0.00 | 0.65 | 0.00 | 82 | 1006.1 |
| 20260507113659 | 45 | 323 | 1.0 | 4.0 | 0.00 | 0.65 | 0.00 | 83 | 1006.1 |
| 20260507113559 | 45 | 327 | 1.0 | 4.0 | 0.00 | 0.65 | 0.00 | 81 | 1006.1 |
| 20260507113456 | 45 | 327 | 1.0 | 4.0 | 0.00 | 0.65 | 0.00 | 82 | 1006.0 |
| 20260507113355 | 45 | 327 | 1.0 | 4.0 | 0.00 | 0.65 | 0.00 | 83 | 1006.0 |
| 20260507113253 | 45 | 350 | 1.0 | 4.0 | 0.00 | 0.65 | 0.00 | 82 | 1005.9 |
| 20260507113217 | 45 | 347 | 1.0 | 4.0 | 0.00 | 0.65 | 0.00 | 83 | 1006.0 |
| 20260507113053 | 45 | 5 | 1.0 | 4.0 | 0.00 | 0.65 | 0.00 | 84 | 1006.0 |
| 20260507112951 | 45 | 12 | 1.0 | 4.0 | 0.00 | 0.65 | 0.00 | 83 | 1006.0 |
| 20260507112836 | 44 | 19 | 1.0 | 4.0 | 0.00 | 0.65 | 0.00 | 84 | 1006.1 |
| 20260507112735 | 44 | 47 | 1.0 | 4.0 | 0.00 | 0.65 | 0.00 | 85 | 1006.1 |
| 20260507112637 | 44 | 11 | 1.0 | 4.0 | 0.00 | 0.65 | 0.00 | 84 | 1006.0 |
| 20260507112536 | 44 | 22 | 0.0 | 3.0 | 0.00 | 0.65 | 0.00 | 84 | 1006.0 |
| 20260507112436 | 44 | 0 | 0.0 | 3.0 | 0.00 | 0.65 | 0.00 | 84 | 1006.0 |
| 20260507112333 | 44 | 355 | 0.0 | 3.0 | 0.00 | 0.65 | 0.00 | 84 | 1006.0 |
| 20260507112233 | 44 | 338 | 0.0 | 3.0 | 0.00 | 0.65 | 0.00 | 85 | 1006.0 |
| 20260507112134 | 44 | 327 | 0.0 | 2.0 | 0.00 | 0.65 | 0.00 | 86 | 1006.0 |
| 20260507112031 | 44 | 5 | 0.0 | 2.0 | 0.00 | 0.65 | 0.00 | 86 | 1006.1 |
| 20260507111930 | 44 | 9 | 0.0 | 3.0 | 0.00 | 0.65 | 0.00 | 87 | 1006.0 |
| 20260507111835 | 44 | 10 | 0.0 | 3.0 | 0.00 | 0.65 | 0.00 | 87 | 1006.0 |
| 20260507111728 | 44 | 323 | 0.0 | 3.0 | 0.00 | 0.65 | 0.00 | 87 | 1006.0 |
| 20260507111627 | 44 | 327 | 0.0 | 3.0 | 0.00 | 0.65 | 0.00 | 87 | 1006.0 |
| 20260507111526 | 44 | 326 | 0.0 | 3.0 | 0.00 | 0.65 | 0.00 | 86 | 1006.0 |
| 20260507111424 | 43 | 323 | 0.0 | 3.0 | 0.00 | 0.65 | 0.00 | 87 | 1006.0 |
| 20260507111316 | 43 | 324 | 1.0 | 7.0 | 0.00 | 0.65 | 0.00 | 88 | 1006.0 |
| 20260507111214 | 43 | 322 | 1.0 | 7.0 | 0.00 | 0.65 | 0.00 | 86 | 1006.0 |
| 20260507111115 | 43 | 331 | 1.0 | 7.0 | 0.00 | 0.65 | 0.00 | 87 | 1006.0 |
| 20260507111014 | 43 | 349 | 1.0 | 7.0 | 0.00 | 0.65 | 0.00 | 87 | 1006.0 |
| 20260507110915 | 43 | 350 | 1.0 | 7.0 | 0.00 | 0.65 | 0.00 | 87 | 1006.0 |
| 20260507110809 | 43 | 350 | 1.0 | 7.0 | 0.00 | 0.65 | 0.00 | 86 | 1006.0 |
| 20260507110709 | 43 | 342 | 1.0 | 7.0 | 0.00 | 0.65 | 0.00 | 87 | 1006.0 |
| 20260507110611 | 43 | 335 | 1.0 | 7.0 | 0.00 | 0.65 | 0.00 | 88 | 1006.0 |
| 20260507110510 | 43 | 335 | 1.0 | 7.0 | 0.00 | 0.65 | 0.00 | 87 | 1006.0 |
| 20260507110409 | 43 | 54 | 1.0 | 7.0 | 0.00 | 0.65 | 0.00 | 87 | 1006.1 |
| 20260507110302 | 42 | 337 | 1.0 | 4.0 | 0.00 | 0.65 | 0.00 | 88 | 1006.0 |
| 20260507110201 | 42 | 337 | 1.0 | 4.0 | 0.00 | 0.65 | 0.00 | 88 | 1006.0 |
| 20260507110103 | 42 | 325 | 1.0 | 4.0 | 0.00 | 0.65 | 0.00 | 89 | 1006.0 |
| 20260507110001 | 42 | 274 | 1.0 | 4.0 | 0.00 | 0.65 | 0.00 | 90 | 1006.1 |
| 20260507105902 | 42 | 317 | 1.0 | 4.0 | 0.00 | 0.65 | 0.00 | 90 | 1006.0 |
| 20260507105751 | 42 | 317 | 1.0 | 10.0 | 0.00 | 0.65 | 0.00 | 90 | 1006.0 |
| 20260507105710 | 42 | 312 | 1.0 | 10.0 | 0.00 | 0.65 | 0.00 | 90 | 1006.1 |
| 20260507105650 | 42 | 311 | 1.0 | 10.0 | 0.00 | 0.65 | 0.00 | 90 | 1006.0 |
| 20260507105449 | 42 | 312 | 1.0 | 10.0 | 0.00 | 0.65 | 0.00 | 90 | 1006.1 |
| 20260507105422 | 42 | 283 | 1.0 | 10.0 | 0.00 | 0.65 | 0.00 | 91 | 1006.1 |
| 20260507105249 | 41 | 283 | 1.0 | 10.0 | 0.00 | 0.65 | 0.00 | 90 | 1006.1 |
| 20260507105211 | 41 | 283 | 1.0 | 10.0 | 0.00 | 0.65 | 0.00 | 90 | 1006.1 |
| 20260507105150 | 41 | 0 | 1.0 | 10.0 | 0.00 | 0.65 | 0.00 | 90 | 1006.1 |
| 20260507104944 | 41 | 13 | 1.0 | 10.0 | 0.00 | 0.65 | 0.00 | 90 | 1006.0 |
| 20260507104842 | 41 | 342 | 1.0 | 10.0 | 0.00 | 0.65 | 0.00 | 92 | 1006.0 |
| 20260507104738 | 41 | 0 | 1.0 | 8.0 | 0.00 | 0.65 | 0.00 | 92 | 1006.0 |
| 20260507104700 | 41 | 325 | 1.0 | 8.0 | 0.00 | 0.65 | 0.00 | 92 | 1006.0 |
| 20260507104536 | 41 | 319 | 1.0 | 8.0 | 0.00 | 0.65 | 0.00 | 92 | 1006.0 |
| 20260507104437 | 41 | 288 | 1.0 | 8.0 | 0.00 | 0.65 | 0.00 | 92 | 1006.0 |
| 20260507104337 | 41 | 317 | 1.0 | 8.0 | 0.00 | 0.65 | 0.00 | 92 | 1006.0 |
| 20260507104227 | 40 | 336 | 1.0 | 8.0 | 0.00 | 0.65 | 0.00 | 93 | 1006.0 |
| 20260507104125 | 40 | 337 | 1.0 | 8.0 | 0.00 | 0.65 | 0.00 | 93 | 1006.0 |
| 20260507104025 | 40 | 336 | 1.0 | 8.0 | 0.00 | 0.65 | 0.00 | 93 | 1006.0 |
| 20260507103925 | 40 | 340 | 1.0 | 8.0 | 0.00 | 0.65 | 0.00 | 93 | 1005.9 |
| 20260507103827 | 40 | 316 | 1.0 | 7.0 | 0.00 | 0.65 | 0.00 | 93 | 1005.9 |
| 20260507103723 | 40 | 14 | 0.0 | 4.0 | 0.00 | 0.65 | 0.00 | 94 | 1005.9 |
| 20260507103657 | 40 | 329 | 1.0 | 4.0 | 0.00 | 0.65 | 0.00 | 94 | 1005.8 |
| 20260507103521 | 39 | 355 | 0.0 | 3.0 | 0.00 | 0.65 | 0.00 | 95 | 1005.8 |
| 20260507103423 | 39 | 9 | 0.0 | 3.0 | 0.00 | 0.65 | 0.00 | 95 | 1005.8 |
| 20260507103320 | 39 | 9 | 0.0 | 3.0 | 0.00 | 0.65 | 0.00 | 95 | 1005.8 |
| 20260507103216 | 39 | 5 | 0.0 | 3.0 | 0.00 | 0.65 | 0.00 | 95 | 1005.8 |
| 20260507103155 | 39 | 355 | 0.0 | 3.0 | 0.00 | 0.65 | 0.00 | 95 | 1005.8 |
| 20260507103016 | 39 | 9 | 0.0 | 3.0 | 0.00 | 0.65 | 0.00 | 96 | 1005.8 |
| 20260507102916 | 39 | 320 | 0.0 | 3.0 | 0.00 | 0.65 | 0.00 | 96 | 1005.7 |
| 20260507102814 | 39 | 320 | 0.0 | 3.0 | 0.00 | 0.65 | 0.00 | 96 | 1005.7 |
| 20260507102714 | 39 | 320 | 0.0 | 3.0 | 0.00 | 0.65 | 0.00 | 96 | 1005.7 |
| 20260507102653 | 39 | 355 | 0.0 | 0.0 | 0.00 | 0.65 | 0.00 | 96 | 1005.6 |
| 20260507102504 | 39 | 355 | 0.0 | 0.0 | 0.00 | 0.65 | 0.00 | 96 | 1005.6 |
| 20260507102402 | 39 | 355 | 0.0 | 0.0 | 0.00 | 0.65 | 0.00 | 96 | 1005.6 |
| 20260507102301 | 38 | 355 | 0.0 | 0.0 | 0.00 | 0.65 | 0.00 | 96 | 1005.6 |
| 20260507102200 | 38 | 355 | 0.0 | 0.0 | 0.00 | 0.65 | 0.00 | 96 | 1005.6 |
| 20260507102058 | 38 | 355 | 0.0 | 0.0 | 0.00 | 0.65 | 0.00 | 96 | 1005.6 |
| 20260507101957 | 38 | 355 | 0.0 | 0.0 | 0.00 | 0.65 | 0.00 | 96 | 1005.6 |
| 20260507101857 | 38 | 355 | 0.0 | 0.0 | 0.00 | 0.65 | 0.00 | 96 | 1005.6 |
| 20260507101755 | 38 | 355 | 0.0 | 0.0 | 0.00 | 0.65 | 0.00 | 96 | 1005.7 |
| 20260507101656 | 38 | 355 | 0.0 | 0.0 | 0.00 | 0.65 | 0.00 | 96 | 1005.7 |
| 20260507101453 | 38 | 355 | 0.0 | 0.0 | 0.00 | 0.65 | 0.00 | 96 | 1005.7 |
| 20260507101354 | 38 | 355 | 0.0 | 0.0 | 0.00 | 0.65 | 0.00 | 95 | 1005.7 |
| 20260507101254 | 38 | 355 | 0.0 | 0.0 | 0.00 | 0.65 | 0.00 | 95 | 1005.7 |
| 20260507101154 | 38 | 355 | 0.0 | 2.0 | 0.00 | 0.65 | 0.00 | 95 | 1005.7 |
| 20260507101055 | 38 | 355 | 0.0 | 3.0 | 0.00 | 0.65 | 0.00 | 95 | 1005.7 |
| 20260507100949 | 38 | 355 | 0.0 | 3.0 | 0.00 | 0.65 | 0.00 | 96 | 1005.7 |
| 20260507100850 | 38 | 355 | 0.0 | 3.0 | 0.00 | 0.65 | 0.00 | 96 | 1005.8 |
| 20260507100749 | 38 | 355 | 0.0 | 3.0 | 0.00 | 0.65 | 0.00 | 96 | 1005.8 |
| 20260507100649 | 38 | 355 | 0.0 | 3.0 | 0.00 | 0.65 | 0.00 | 96 | 1005.8 |
| 20260507100447 | 37 | 355 | 0.0 | 3.0 | 0.00 | 0.65 | 0.00 | 96 | 1005.8 |
| 20260507100347 | 37 | 355 | 0.0 | 3.0 | 0.00 | 0.65 | 0.00 | 96 | 1005.7 |
| 20260507100248 | 37 | 355 | 0.0 | 3.0 | 0.00 | 0.65 | 0.00 | 96 | 1005.7 |
| 20260507100204 | 37 | 355 | 0.0 | 3.0 | 0.00 | 0.65 | 0.00 | 96 | 1005.6 |
| 20260507100142 | 37 | 311 | 0.0 | 2.0 | 0.00 | 0.65 | 0.00 | 96 | 1005.7 |
| 20260507095948 | 37 | 311 | 0.0 | 2.0 | 0.00 | 0.65 | 0.00 | 96 | 1005.7 |
| 20260507095849 | 37 | 311 | 0.0 | 2.0 | 0.00 | 0.65 | 0.00 | 96 | 1005.6 |
| 20260507095747 | 37 | 310 | 0.0 | 3.0 | 0.00 | 0.65 | 0.00 | 96 | 1005.7 |
| 20260507095647 | 37 | 314 | 0.0 | 3.0 | 0.00 | 0.65 | 0.00 | 96 | 1005.6 |
| 20260507095545 | 37 | 314 | 0.0 | 3.0 | 0.00 | 0.65 | 0.00 | 96 | 1005.6 |
| 20260507095445 | 37 | 314 | 0.0 | 3.0 | 0.00 | 0.65 | 0.00 | 96 | 1005.6 |
| 20260507095347 | 37 | 347 | 0.0 | 3.0 | 0.00 | 0.65 | 0.00 | 96 | 1005.5 |
| 20260507095246 | 37 | 344 | 0.0 | 3.0 | 0.00 | 0.65 | 0.00 | 96 | 1005.5 |
| 20260507095146 | 37 | 344 | 0.0 | 3.0 | 0.00 | 0.65 | 0.00 | 96 | 1005.6 |
| 20260507094941 | 37 | 344 | 0.0 | 3.0 | 0.00 | 0.65 | 0.00 | 96 | 1005.5 |
| 20260507094843 | 37 | 344 | 0.0 | 3.0 | 0.00 | 0.65 | 0.00 | 96 | 1005.6 |
| 20260507094741 | 37 | 345 | 0.0 | 3.0 | 0.00 | 0.65 | 0.00 | 96 | 1005.6 |
| 20260507094702 | 37 | 344 | 0.0 | 2.0 | 0.00 | 0.65 | 0.00 | 95 | 1005.6 |
| 20260507094641 | 37 | 19 | 0.0 | 0.0 | 0.00 | 0.65 | 0.00 | 95 | 1005.7 |
| 20260507094441 | 37 | 19 | 0.0 | 1.0 | 0.00 | 0.65 | 0.00 | 95 | 1005.7 |
| 20260507094341 | 37 | 19 | 0.0 | 1.0 | 0.00 | 0.65 | 0.00 | 95 | 1005.8 |
| 20260507094243 | 37 | 19 | 0.0 | 1.0 | 0.00 | 0.65 | 0.00 | 95 | 1005.8 |
| 20260507094142 | 37 | 19 | 0.0 | 5.0 | 0.00 | 0.65 | 0.00 | 95 | 1005.8 |
| 20260507093942 | 37 | 19 | 0.0 | 5.0 | 0.00 | 0.65 | 0.00 | 95 | 1005.9 |
| 20260507093843 | 37 | 19 | 0.0 | 5.0 | 0.00 | 0.65 | 0.00 | 95 | 1006.0 |
| 20260507093741 | 37 | 19 | 0.0 | 5.0 | 0.00 | 0.65 | 0.00 | 95 | 1005.9 |
| 20260507093642 | 37 | 19 | 0.0 | 5.0 | 0.00 | 0.65 | 0.00 | 95 | 1006.0 |
| 20260507093442 | 37 | 19 | 0.0 | 5.0 | 0.00 | 0.65 | 0.00 | 94 | 1006.0 |
| 20260507093341 | 37 | 19 | 0.0 | 5.0 | 0.00 | 0.65 | 0.00 | 94 | 1006.0 |
| 20260507093242 | 37 | 19 | 0.0 | 5.0 | 0.00 | 0.65 | 0.00 | 94 | 1006.0 |
| 20260507093142 | 37 | 322 | 0.0 | 1.0 | 0.00 | 0.65 | 0.00 | 94 | 1006.0 |
| 20260507093041 | 37 | 321 | 0.0 | 0.0 | 0.00 | 0.65 | 0.00 | 93 | 1006.1 |
| 20260507092942 | 37 | 321 | 0.0 | 3.0 | 0.00 | 0.65 | 0.00 | 93 | 1006.0 |
| 20260507092841 | 37 | 321 | 0.0 | 3.0 | 0.00 | 0.65 | 0.00 | 93 | 1006.0 |
| 20260507092743 | 37 | 321 | 0.0 | 3.0 | 0.00 | 0.65 | 0.00 | 93 | 1006.1 |
| 20260507092701 | 38 | 321 | 0.0 | 3.0 | 0.00 | 0.65 | 0.00 | 93 | 1006.0 |
| 20260507092640 | 38 | 321 | 0.0 | 3.0 | 0.00 | 0.65 | 0.00 | 93 | 1006.0 |
| 20260507092441 | 38 | 321 | 0.0 | 3.0 | 0.00 | 0.65 | 0.00 | 93 | 1006.0 |
| 20260507092343 | 38 | 321 | 0.0 | 3.0 | 0.00 | 0.65 | 0.00 | 93 | 1006.0 |
| 20260507092242 | 38 | 321 | 0.0 | 3.0 | 0.00 | 0.65 | 0.00 | 93 | 1006.0 |
| 20260507092142 | 38 | 321 | 0.0 | 3.0 | 0.00 | 0.65 | 0.00 | 93 | 1006.0 |
| 20260507091941 | 38 | 319 | 0.0 | 3.0 | 0.00 | 0.65 | 0.00 | 94 | 1006.0 |
| 20260507091841 | 38 | 306 | 0.0 | 0.0 | 0.00 | 0.65 | 0.00 | 94 | 1005.9 |
| 20260507091741 | 38 | 306 | 0.0 | 0.0 | 0.00 | 0.65 | 0.00 | 93 | 1005.9 |
| 20260507091641 | 38 | 306 | 0.0 | 0.0 | 0.00 | 0.65 | 0.00 | 93 | 1005.8 |
| 20260507091441 | 38 | 306 | 0.0 | 0.0 | 0.00 | 0.65 | 0.00 | 94 | 1005.9 |
| 20260507091342 | 38 | 306 | 0.0 | 1.0 | 0.00 | 0.65 | 0.00 | 94 | 1005.9 |
| 20260507091241 | 38 | 306 | 0.0 | 1.0 | 0.00 | 0.65 | 0.00 | 94 | 1005.8 |
| 20260507091143 | 38 | 306 | 0.0 | 1.0 | 0.00 | 0.65 | 0.00 | 94 | 1005.8 |
| 20260507090933 | 38 | 306 | 0.0 | 1.0 | 0.00 | 0.65 | 0.00 | 94 | 1005.8 |
| 20260507090832 | 38 | 306 | 0.0 | 1.0 | 0.00 | 0.65 | 0.00 | 94 | 1005.9 |
| 20260507090734 | 38 | 306 | 0.0 | 1.0 | 0.00 | 0.65 | 0.00 | 93 | 1005.9 |
| 20260507090634 | 38 | 306 | 0.0 | 1.0 | 0.00 | 0.65 | 0.00 | 93 | 1005.9 |
| 20260507090433 | 38 | 306 | 0.0 | 1.0 | 0.00 | 0.65 | 0.00 | 94 | 1005.9 |
| 20260507090334 | 38 | 296 | 0.0 | 0.0 | 0.00 | 0.65 | 0.00 | 94 | 1005.8 |
| 20260507090232 | 38 | 296 | 0.0 | 0.0 | 0.00 | 0.65 | 0.00 | 93 | 1005.8 |
| 20260507090133 | 38 | 296 | 0.0 | 0.0 | 0.00 | 0.65 | 0.00 | 93 | 1005.9 |
| 20260507085933 | 38 | 295 | 0.0 | 0.0 | 0.00 | 0.65 | 0.00 | 94 | 1005.9 |
| 20260507085905 | 38 | 295 | 0.0 | 0.0 | 0.00 | 0.65 | 0.00 | 94 | 1005.9 |
| 20260507085734 | 38 | 319 | 0.0 | 0.0 | 0.00 | 0.65 | 0.00 | 94 | 1005.9 |
| 20260507085656 | 38 | 323 | 0.0 | 0.0 | 0.00 | 0.65 | 0.00 | 94 | 1005.9 |
| 20260507085637 | 38 | 323 | 0.0 | 0.0 | 0.00 | 0.65 | 0.00 | 95 | 1005.9 |
| 20260507085434 | 38 | 323 | 0.0 | 0.0 | 0.00 | 0.65 | 0.00 | 95 | 1006.0 |
| 20260507085333 | 38 | 323 | 0.0 | 0.0 | 0.00 | 0.65 | 0.00 | 95 | 1006.0 |
| 20260507085234 | 38 | 304 | 0.0 | 0.0 | 0.00 | 0.65 | 0.00 | 95 | 1005.9 |
| 20260507085134 | 38 | 304 | 0.0 | 0.0 | 0.00 | 0.65 | 0.00 | 95 | 1005.9 |
| 20260507084933 | 38 | 304 | 0.0 | 2.0 | 0.00 | 0.65 | 0.00 | 95 | 1005.8 |
| 20260507084835 | 38 | 304 | 0.0 | 3.0 | 0.00 | 0.65 | 0.00 | 95 | 1005.8 |
| 20260507084733 | 38 | 304 | 0.0 | 3.0 | 0.00 | 0.65 | 0.00 | 95 | 1005.8 |
| 20260507084633 | 38 | 304 | 0.0 | 3.0 | 0.00 | 0.65 | 0.00 | 95 | 1005.8 |
| 20260507084432 | 38 | 315 | 0.0 | 3.0 | 0.00 | 0.65 | 0.00 | 96 | 1005.7 |
| 20260507084329 | 38 | 315 | 0.0 | 3.0 | 0.00 | 0.65 | 0.00 | 96 | 1005.7 |
| 20260507084230 | 38 | 315 | 0.0 | 3.0 | 0.00 | 0.65 | 0.00 | 96 | 1005.7 |
| 20260507084126 | 38 | 315 | 0.0 | 3.0 | 0.00 | 0.65 | 0.00 | 96 | 1005.6 |
| 20260507083923 | 38 | 315 | 0.0 | 3.0 | 0.00 | 0.65 | 0.00 | 97 | 1005.7 |
| 20260507083822 | 38 | 315 | 0.0 | 3.0 | 0.00 | 0.65 | 0.00 | 97 | 1005.6 |
| 20260507083721 | 38 | 315 | 0.0 | 3.0 | 0.00 | 0.65 | 0.00 | 97 | 1005.7 |
| 20260507083617 | 38 | 325 | 0.0 | 0.0 | 0.00 | 0.65 | 0.00 | 97 | 1005.7 |
| 20260507083416 | 38 | 325 | 0.0 | 0.0 | 0.00 | 0.65 | 0.00 | 97 | 1005.7 |
| 20260507083314 | 38 | 325 | 0.0 | 0.0 | 0.00 | 0.65 | 0.00 | 97 | 1005.7 |
| 20260507083211 | 38 | 325 | 0.0 | 0.0 | 0.00 | 0.65 | 0.00 | 97 | 1005.7 |
| 20260507083112 | 38 | 325 | 0.0 | 0.0 | 0.00 | 0.65 | 0.00 | 97 | 1005.7 |
| 20260507082907 | 38 | 325 | 0.0 | 1.0 | 0.00 | 0.65 | 0.00 | 97 | 1005.7 |
| 20260507082818 | 38 | 325 | 0.0 | 1.0 | 0.00 | 0.65 | 0.00 | 97 | 1005.7 |
| 20260507082757 | 38 | 325 | 0.0 | 3.0 | 0.00 | 0.65 | 0.00 | 97 | 1005.7 |
| 20260507082606 | 38 | 325 | 0.0 | 3.0 | 0.00 | 0.65 | 0.00 | 97 | 1005.7 |
| 20260507082350 | 38 | 325 | 0.0 | 3.0 | 0.00 | 0.65 | 0.00 | 97 | 1005.7 |
| 20260507082323 | 38 | 325 | 0.0 | 3.0 | 0.00 | 0.65 | 0.00 | 97 | 1005.7 |
| 20260507082149 | 38 | 325 | 0.0 | 3.0 | 0.00 | 0.65 | 0.00 | 97 | 1005.7 |
| 20260507082115 | 38 | 325 | 0.0 | 3.0 | 0.00 | 0.65 | 0.00 | 97 | 1005.7 |
| 20260507082054 | 38 | 325 | 0.0 | 3.0 | 0.00 | 0.65 | 0.00 | 97 | 1005.7 |
| 20260507081847 | 38 | 325 | 0.0 | 3.0 | 0.00 | 0.65 | 0.00 | 97 | 1005.7 |
| 20260507081748 | 38 | 325 | 0.0 | 2.0 | 0.00 | 0.65 | 0.00 | 97 | 1005.7 |
| 20260507081649 | 38 | 325 | 0.0 | 2.0 | 0.00 | 0.65 | 0.00 | 97 | 1005.7 |
| 20260507081546 | 38 | 325 | 0.0 | 2.0 | 0.00 | 0.65 | 0.00 | 97 | 1005.7 |
| 20260507081342 | 39 | 325 | 0.0 | 2.0 | 0.00 | 0.65 | 0.00 | 97 | 1005.7 |
| 20260507081242 | 39 | 326 | 0.0 | 2.0 | 0.00 | 0.65 | 0.00 | 97 | 1005.7 |
| 20260507081141 | 39 | 325 | 0.0 | 2.0 | 0.00 | 0.65 | 0.00 | 97 | 1005.7 |
| 20260507081104 | 39 | 325 | 0.0 | 2.0 | 0.00 | 0.65 | 0.00 | 97 | 1005.7 |
| 20260507081042 | 39 | 326 | 0.0 | 0.0 | 0.00 | 0.65 | 0.00 | 97 | 1005.7 |
| 20260507080829 | 39 | 327 | 0.0 | 0.0 | 0.00 | 0.65 | 0.00 | 97 | 1005.7 |
| 20260507080727 | 39 | 327 | 0.0 | 0.0 | 0.00 | 0.65 | 0.00 | 97 | 1005.7 |
| 20260507080627 | 39 | 327 | 0.0 | 0.0 | 0.00 | 0.65 | 0.00 | 97 | 1005.6 |
| 20260507080528 | 39 | 327 | 0.0 | 0.0 | 0.00 | 0.65 | 0.00 | 97 | 1005.7 |
| 20260507080329 | 39 | 327 | 0.0 | 0.0 | 0.00 | 0.65 | 0.00 | 97 | 1005.7 |
| 20260507080226 | 39 | 327 | 0.0 | 0.0 | 0.00 | 0.65 | 0.00 | 97 | 1005.7 |
| 20260507080125 | 39 | 327 | 0.0 | 0.0 | 0.00 | 0.65 | 0.00 | 97 | 1005.8 |
| 20260507080024 | 39 | 327 | 0.0 | 0.0 | 0.00 | 0.65 | 0.00 | 97 | 1005.8 |
| 20260507075821 | 39 | 327 | 0.0 | 0.0 | 0.00 | 0.65 | 0.00 | 97 | 1005.7 |
| 20260507075720 | 39 | 327 | 0.0 | 0.0 | 0.00 | 0.65 | 0.00 | 97 | 1005.7 |
| 20260507075617 | 39 | 327 | 0.0 | 0.0 | 0.00 | 0.65 | 0.00 | 97 | 1005.7 |
| 20260507075540 | 39 | 327 | 0.0 | 0.0 | 0.00 | 0.65 | 0.00 | 97 | 1005.7 |
| 20260507075519 | 39 | 327 | 0.0 | 0.0 | 0.00 | 0.65 | 0.00 | 97 | 1005.7 |
| 20260507075307 | 39 | 327 | 0.0 | 0.0 | 0.00 | 0.65 | 0.00 | 97 | 1005.7 |
| 20260507075205 | 39 | 327 | 0.0 | 0.0 | 0.00 | 0.65 | 0.00 | 97 | 1005.6 |
| 20260507075106 | 39 | 327 | 0.0 | 0.0 | 0.00 | 0.65 | 0.00 | 97 | 1005.6 |
| 20260507075003 | 39 | 327 | 0.0 | 0.0 | 0.00 | 0.65 | 0.00 | 97 | 1005.5 |
| 20260507074759 | 39 | 327 | 0.0 | 0.0 | 0.00 | 0.65 | 0.00 | 97 | 1005.5 |
| 20260507074655 | 39 | 327 | 0.0 | 0.0 | 0.00 | 0.65 | 0.00 | 97 | 1005.5 |
| 20260507074555 | 40 | 327 | 0.0 | 0.0 | 0.00 | 0.65 | 0.00 | 97 | 1005.4 |
| 20260507074455 | 39 | 327 | 0.0 | 0.0 | 0.00 | 0.65 | 0.00 | 97 | 1005.4 |
| 20260507074255 | 40 | 327 | 0.0 | 0.0 | 0.00 | 0.65 | 0.00 | 97 | 1005.4 |
| 20260507074154 | 40 | 327 | 0.0 | 0.0 | 0.00 | 0.65 | 0.00 | 97 | 1005.3 |
| 20260507074053 | 40 | 327 | 0.0 | 0.0 | 0.00 | 0.65 | 0.00 | 98 | 1005.1 |
| 20260507074016 | 40 | 327 | 0.0 | 2.0 | 0.00 | 0.65 | 0.00 | 97 | 1005.1 |
| 20260507073953 | 40 | 327 | 0.0 | 2.0 | 0.00 | 0.65 | 0.00 | 97 | 1005.1 |
| 20260507073743 | 40 | 327 | 0.0 | 5.0 | 0.00 | 0.65 | 0.00 | 97 | 1005.1 |
| 20260507073644 | 40 | 327 | 0.0 | 5.0 | 0.00 | 0.65 | 0.00 | 97 | 1005.1 |
| 20260507073544 | 40 | 327 | 0.0 | 5.0 | 0.00 | 0.65 | 0.00 | 97 | 1005.0 |
| 20260507073441 | 40 | 327 | 0.0 | 5.0 | 0.00 | 0.65 | 0.00 | 97 | 1004.9 |
| 20260507073241 | 40 | 327 | 0.0 | 5.0 | 0.00 | 0.65 | 0.00 | 97 | 1004.9 |
| 20260507073138 | 40 | 327 | 0.0 | 5.0 | 0.00 | 0.65 | 0.00 | 97 | 1004.9 |
| 20260507073038 | 40 | 327 | 0.0 | 5.0 | 0.00 | 0.65 | 0.00 | 97 | 1004.8 |
| 20260507072936 | 40 | 268 | 0.0 | 5.0 | 0.00 | 0.65 | 0.00 | 97 | 1004.8 |
| 20260507072734 | 40 | 289 | 0.0 | 2.0 | 0.00 | 0.65 | 0.00 | 98 | 1004.9 |
| 20260507072632 | 40 | 289 | 0.0 | 2.0 | 0.00 | 0.65 | 0.00 | 98 | 1004.9 |
| 20260507072530 | 40 | 289 | 0.0 | 2.0 | 0.00 | 0.65 | 0.00 | 98 | 1004.9 |
| 20260507072430 | 40 | 289 | 0.0 | 2.0 | 0.00 | 0.65 | 0.00 | 98 | 1004.9 |
| 20260507072217 | 40 | 289 | 0.0 | 2.0 | 0.00 | 0.65 | 0.00 | 98 | 1005.0 |
| 20260507072118 | 40 | 289 | 0.0 | 2.0 | 0.00 | 0.65 | 0.00 | 98 | 1004.9 |
| 20260507072017 | 40 | 288 | 0.0 | 3.0 | 0.00 | 0.65 | 0.00 | 98 | 1004.8 |
| 20260507071916 | 40 | 288 | 0.0 | 3.0 | 0.00 | 0.65 | 0.00 | 97 | 1004.8 |
| 20260507071708 | 40 | 288 | 1.0 | 3.0 | 0.00 | 0.65 | 0.00 | 97 | 1004.8 |
| 20260507071609 | 40 | 289 | 1.0 | 3.0 | 0.00 | 0.65 | 0.00 | 97 | 1004.8 |
| 20260507071508 | 40 | 289 | 1.0 | 3.0 | 0.00 | 0.65 | 0.00 | 97 | 1004.8 |
| 20260507071433 | 40 | 289 | 1.0 | 3.0 | 0.00 | 0.65 | 0.00 | 97 | 1004.7 |
| 20260507071411 | 40 | 289 | 1.0 | 3.0 | 0.00 | 0.65 | 0.00 | 97 | 1004.8 |
| 20260507071205 | 40 | 289 | 1.0 | 3.0 | 0.00 | 0.65 | 0.00 | 97 | 1004.7 |
| 20260507071102 | 40 | 289 | 2.0 | 3.0 | 0.00 | 0.65 | 0.00 | 97 | 1004.7 |
| 20260507071002 | 40 | 289 | 2.0 | 4.0 | 0.00 | 0.65 | 0.00 | 97 | 1004.8 |
| 20260507070928 | 40 | 289 | 2.0 | 4.0 | 0.00 | 0.65 | 0.00 | 97 | 1004.8 |
| 20260507070905 | 40 | 289 | 2.0 | 4.0 | 0.00 | 0.65 | 0.00 | 97 | 1004.8 |
| 20260507070655 | 40 | 289 | 2.0 | 4.0 | 0.00 | 0.65 | 0.00 | 97 | 1004.9 |
| 20260507070555 | 40 | 289 | 2.0 | 4.0 | 0.00 | 0.65 | 0.00 | 97 | 1004.9 |
| 20260507070455 | 40 | 292 | 1.0 | 4.0 | 0.00 | 0.65 | 0.00 | 97 | 1004.9 |
| 20260507070354 | 40 | 292 | 2.0 | 4.0 | 0.00 | 0.65 | 0.00 | 97 | 1005.0 |
| 20260507070148 | 40 | 281 | 2.0 | 4.0 | 0.00 | 0.65 | 0.00 | 97 | 1005.0 |
| 20260507070046 | 40 | 280 | 1.0 | 4.0 | 0.00 | 0.65 | 0.00 | 97 | 1005.0 |
| 20260507065945 | 40 | 316 | 1.0 | 3.0 | 0.00 | 0.65 | 0.00 | 97 | 1005.0 |
| 20260507065846 | 40 | 317 | 1.0 | 3.0 | 0.00 | 0.65 | 0.00 | 97 | 1005.0 |
| 20260507065641 | 40 | 236 | 1.0 | 4.0 | 0.00 | 0.65 | 0.00 | 97 | 1005.0 |
| 20260507065540 | 40 | 301 | 1.0 | 4.0 | 0.00 | 0.65 | 0.00 | 97 | 1005.0 |
| 20260507065440 | 40 | 301 | 1.0 | 4.0 | 0.00 | 0.65 | 0.00 | 97 | 1005.0 |
| 20260507065340 | 40 | 301 | 1.0 | 4.0 | 0.00 | 0.65 | 0.00 | 97 | 1005.0 |
| 20260507065128 | 40 | 296 | 1.0 | 4.0 | 0.00 | 0.65 | 0.00 | 97 | 1005.1 |
| 20260507065025 | 40 | 296 | 1.0 | 5.0 | 0.00 | 0.65 | 0.00 | 97 | 1005.0 |
| 20260507064925 | 40 | 299 | 1.0 | 5.0 | 0.00 | 0.65 | 0.00 | 97 | 1005.0 |
| 20260507064826 | 40 | 300 | 2.0 | 5.0 | 0.00 | 0.65 | 0.00 | 97 | 1005.0 |
| 20260507064623 | 40 | 272 | 2.0 | 5.0 | 0.00 | 0.65 | 0.00 | 97 | 1005.0 |
| 20260507064522 | 40 | 275 | 2.0 | 5.0 | 0.00 | 0.65 | 0.00 | 97 | 1005.0 |
| 20260507064423 | 40 | 273 | 2.0 | 5.0 | 0.00 | 0.65 | 0.00 | 97 | 1005.0 |
| 20260507064322 | 40 | 275 | 2.0 | 5.0 | 0.00 | 0.65 | 0.00 | 97 | 1005.1 |
| 20260507064112 | 40 | 296 | 1.0 | 5.0 | 0.00 | 0.65 | 0.00 | 97 | 1005.1 |
| 20260507064013 | 40 | 302 | 1.0 | 4.0 | 0.00 | 0.65 | 0.00 | 97 | 1005.1 |
| 20260507063914 | 40 | 286 | 1.0 | 4.0 | 0.00 | 0.65 | 0.00 | 97 | 1005.1 |
| 20260507063812 | 40 | 293 | 1.0 | 4.0 | 0.00 | 0.65 | 0.00 | 97 | 1005.1 |
| 20260507063606 | 40 | 291 | 1.0 | 4.0 | 0.00 | 0.65 | 0.00 | 97 | 1005.1 |
| 20260507063502 | 40 | 291 | 1.0 | 4.0 | 0.00 | 0.65 | 0.00 | 97 | 1005.3 |
| 20260507063402 | 40 | 291 | 1.0 | 4.0 | 0.00 | 0.65 | 0.00 | 97 | 1005.3 |
| 20260507063331 | 40 | 267 | 1.0 | 4.0 | 0.00 | 0.65 | 0.00 | 97 | 1005.3 |
| 20260507063308 | 40 | 289 | 1.0 | 3.0 | 0.00 | 0.65 | 0.00 | 97 | 1005.4 |
| 20260507063058 | 40 | 289 | 1.0 | 3.0 | 0.00 | 0.65 | 0.00 | 97 | 1005.4 |
| 20260507062956 | 40 | 289 | 1.0 | 4.0 | 0.00 | 0.65 | 0.00 | 97 | 1005.3 |
| 20260507062858 | 40 | 289 | 1.0 | 4.0 | 0.00 | 0.65 | 0.00 | 98 | 1005.1 |
| 20260507062758 | 40 | 290 | 1.0 | 4.0 | 0.00 | 0.65 | 0.00 | 98 | 1005.0 |
| 20260507062554 | 40 | 296 | 1.0 | 4.0 | 0.00 | 0.65 | 0.00 | 98 | 1004.9 |
| 20260507062452 | 40 | 296 | 1.0 | 4.0 | 0.00 | 0.65 | 0.00 | 98 | 1004.8 |
| 20260507062352 | 40 | 302 | 1.0 | 4.0 | 0.00 | 0.65 | 0.00 | 98 | 1004.8 |
| 20260507062250 | 40 | 304 | 1.0 | 4.0 | 0.00 | 0.65 | 0.00 | 98 | 1004.7 |
| 20260507062038 | 40 | 294 | 1.0 | 4.0 | 0.00 | 0.65 | 0.00 | 98 | 1004.9 |
| 20260507061938 | 40 | 291 | 1.0 | 4.0 | 0.00 | 0.65 | 0.00 | 98 | 1005.0 |
| 20260507061838 | 41 | 288 | 1.0 | 3.0 | 0.00 | 0.65 | 0.00 | 98 | 1005.0 |
| 20260507061738 | 41 | 281 | 1.0 | 3.0 | 0.00 | 0.65 | 0.00 | 98 | 1004.9 |
| 20260507061536 | 41 | 285 | 1.0 | 5.0 | 0.00 | 0.65 | 0.00 | 98 | 1005.1 |
| 20260507061435 | 41 | 285 | 1.0 | 5.0 | 0.00 | 0.65 | 0.00 | 98 | 1005.3 |
| 20260507061334 | 41 | 283 | 1.0 | 5.0 | 0.00 | 0.65 | 0.00 | 98 | 1005.4 |
| 20260507061234 | 41 | 292 | 1.0 | 5.0 | 0.00 | 0.65 | 0.00 | 98 | 1005.3 |
| 20260507061031 | 41 | 313 | 1.0 | 5.0 | 0.00 | 0.65 | 0.00 | 98 | 1005.1 |
| 20260507060928 | 41 | 313 | 1.0 | 5.0 | 0.00 | 0.65 | 0.00 | 98 | 1005.1 |
| 20260507060828 | 41 | 325 | 1.0 | 5.0 | 0.00 | 0.65 | 0.00 | 98 | 1005.1 |
| 20260507060728 | 41 | 325 | 1.0 | 5.0 | 0.00 | 0.65 | 0.00 | 98 | 1005.4 |
| 20260507060516 | 41 | 275 | 2.0 | 4.0 | 0.00 | 0.65 | 0.00 | 98 | 1005.4 |
| 20260507060414 | 41 | 273 | 2.0 | 4.0 | 0.00 | 0.65 | 0.00 | 98 | 1005.5 |
| 20260507060316 | 41 | 273 | 2.0 | 4.0 | 0.00 | 0.65 | 0.00 | 98 | 1005.5 |
| 20260507060214 | 41 | 275 | 2.0 | 4.0 | 0.00 | 0.65 | 0.00 | 98 | 1005.5 |
| 20260507060010 | 41 | 283 | 2.0 | 5.0 | 0.00 | 0.65 | 0.00 | 98 | 1005.4 |
| 20260507055909 | 41 | 284 | 2.0 | 5.0 | 0.00 | 0.65 | 0.00 | 98 | 1005.4 |
| 20260507055809 | 41 | 286 | 2.0 | 5.0 | 0.00 | 0.65 | 0.00 | 98 | 1005.3 |
| 20260507055710 | 41 | 277 | 2.0 | 5.0 | 0.00 | 0.65 | 0.00 | 98 | 1005.1 |
| 20260507055503 | 41 | 296 | 1.0 | 5.0 | 0.00 | 0.65 | 0.00 | 98 | 1004.9 |
| 20260507055404 | 41 | 296 | 1.0 | 5.0 | 0.00 | 0.65 | 0.00 | 98 | 1004.9 |
| 20260507055306 | 41 | 290 | 1.0 | 5.0 | 0.00 | 0.65 | 0.00 | 98 | 1005.0 |
| 20260507055203 | 41 | 285 | 1.0 | 5.0 | 0.00 | 0.65 | 0.00 | 98 | 1005.0 |
| 20260507054952 | 41 | 286 | 2.0 | 5.0 | 0.00 | 0.65 | 0.00 | 99 | 1005.0 |
| 20260507054853 | 41 | 273 | 2.0 | 5.0 | 0.00 | 0.65 | 0.00 | 98 | 1005.3 |
| 20260507054752 | 41 | 278 | 2.0 | 7.0 | 0.00 | 0.65 | 0.00 | 99 | 1005.3 |
| 20260507054652 | 41 | 271 | 2.0 | 7.0 | 0.00 | 0.65 | 0.00 | 99 | 1005.1 |
| 20260507054442 | 41 | 315 | 3.0 | 7.0 | 0.00 | 0.65 | 0.00 | 99 | 1005.1 |
| 20260507054343 | 41 | 288 | 3.0 | 7.0 | 0.00 | 0.65 | 0.00 | 99 | 1005.0 |
| 20260507054244 | 41 | 271 | 2.0 | 7.0 | 0.00 | 0.65 | 0.00 | 99 | 1005.0 |
| 20260507054142 | 41 | 296 | 2.0 | 7.0 | 0.00 | 0.65 | 0.00 | 99 | 1005.0 |
| 20260507053938 | 41 | 290 | 2.0 | 7.0 | 0.00 | 0.65 | 0.00 | 99 | 1005.1 |
| 20260507053838 | 41 | 299 | 1.0 | 7.0 | 0.00 | 0.65 | 0.00 | 99 | 1005.1 |
| 20260507053738 | 41 | 289 | 1.0 | 6.0 | 0.00 | 0.65 | 0.00 | 99 | 1005.1 |
| 20260507053704 | 41 | 290 | 1.0 | 6.0 | 0.00 | 0.65 | 0.00 | 98 | 1005.1 |
| 20260507053642 | 41 | 284 | 1.0 | 6.0 | 0.00 | 0.65 | 0.00 | 99 | 1005.0 |
| 20260507053430 | 41 | 286 | 0.0 | 4.0 | 0.00 | 0.65 | 0.00 | 98 | 1005.0 |
| 20260507053332 | 41 | 289 | 0.0 | 4.0 | 0.00 | 0.65 | 0.00 | 98 | 1005.0 |
| 20260507053232 | 41 | 281 | 0.0 | 3.0 | 0.00 | 0.65 | 0.00 | 98 | 1005.0 |
| 20260507053128 | 41 | 281 | 0.0 | 3.0 | 0.00 | 0.65 | 0.00 | 98 | 1005.0 |
| 20260507052922 | 41 | 277 | 0.0 | 3.0 | 0.00 | 0.65 | 0.00 | 98 | 1005.1 |
| 20260507052822 | 41 | 277 | 0.0 | 3.0 | 0.00 | 0.65 | 0.00 | 98 | 1005.1 |
| 20260507052722 | 41 | 276 | 0.0 | 3.0 | 0.00 | 0.65 | 0.00 | 98 | 1005.1 |
| 20260507052647 | 41 | 277 | 0.0 | 3.0 | 0.00 | 0.65 | 0.00 | 98 | 1005.3 |
| 20260507052626 | 41 | 23 | 0.0 | 2.0 | 0.00 | 0.65 | 0.00 | 98 | 1005.1 |
| 20260507052416 | 41 | 324 | 0.0 | 6.0 | 0.00 | 0.65 | 0.00 | 98 | 1005.4 |
| 20260507052316 | 41 | 324 | 0.0 | 6.0 | 0.00 | 0.65 | 0.00 | 98 | 1005.4 |
| 20260507052216 | 41 | 324 | 1.0 | 6.0 | 0.00 | 0.65 | 0.00 | 98 | 1005.4 |
| 20260507052116 | 41 | 325 | 1.0 | 6.0 | 0.00 | 0.65 | 0.00 | 98 | 1005.4 |
| 20260507051904 | 41 | 325 | 1.0 | 6.0 | 0.00 | 0.65 | 0.00 | 98 | 1005.4 |
| 20260507051839 | 41 | 325 | 1.0 | 6.0 | 0.00 | 0.65 | 0.00 | 98 | 1005.4 |
| 20260507051706 | 41 | 324 | 1.0 | 6.0 | 0.00 | 0.65 | 0.00 | 98 | 1005.4 |
| 20260507051628 | 41 | 325 | 1.0 | 6.0 | 0.00 | 0.65 | 0.00 | 98 | 1005.4 |
| 20260507051606 | 41 | 13 | 1.0 | 6.0 | 0.00 | 0.65 | 0.00 | 98 | 1005.3 |
| 20260507051402 | 41 | 9 | 1.0 | 6.0 | 0.00 | 0.65 | 0.00 | 98 | 1005.1 |
| 20260507051258 | 41 | 316 | 1.0 | 6.0 | 0.00 | 0.65 | 0.00 | 98 | 1005.1 |
| 20260507051156 | 41 | 144 | 1.0 | 6.0 | 0.00 | 0.65 | 0.00 | 99 | 1005.1 |
| 20260507051121 | 41 | 322 | 1.0 | 6.0 | 0.00 | 0.65 | 0.00 | 99 | 1005.0 |
| 20260507051100 | 41 | 322 | 1.0 | 6.0 | 0.00 | 0.65 | 0.00 | 99 | 1005.1 |
| 20260507050854 | 41 | 322 | 1.0 | 6.0 | 0.00 | 0.65 | 0.00 | 99 | 1005.0 |
| 20260507050754 | 41 | 322 | 1.0 | 6.0 | 0.00 | 0.65 | 0.00 | 99 | 1005.0 |
| 20260507050653 | 41 | 331 | 1.0 | 6.0 | 0.00 | 0.65 | 0.00 | 99 | 1005.1 |
| 20260507050551 | 41 | 331 | 0.0 | 6.0 | 0.00 | 0.65 | 0.00 | 99 | 1005.0 |
| 20260507050343 | 41 | 76 | 1.0 | 6.0 | 0.00 | 0.65 | 0.00 | 99 | 1005.0 |
| 20260507050244 | 41 | 255 | 0.0 | 6.0 | 0.00 | 0.65 | 0.00 | 99 | 1004.9 |
| 20260507050144 | 41 | 333 | 0.0 | 6.0 | 0.00 | 0.65 | 0.00 | 99 | 1004.9 |
| 20260507050105 | 41 | 333 | 0.0 | 6.0 | 0.00 | 0.65 | 0.00 | 99 | 1004.9 |
| 20260507050044 | 41 | 199 | 0.0 | 6.0 | 0.00 | 0.65 | 0.00 | 99 | 1004.8 |
| 20260507045839 | 41 | 186 | 0.0 | 6.0 | 0.00 | 0.65 | 0.00 | 99 | 1004.9 |
| 20260507045738 | 41 | 186 | 0.0 | 6.0 | 0.00 | 0.65 | 0.00 | 99 | 1005.0 |
| 20260507045638 | 41 | 186 | 0.0 | 6.0 | 0.00 | 0.65 | 0.00 | 99 | 1005.1 |
| 20260507045534 | 41 | 184 | 0.0 | 6.0 | 0.00 | 0.65 | 0.00 | 99 | 1005.1 |
| 20260507045333 | 41 | 238 | 0.0 | 4.0 | 0.00 | 0.65 | 0.00 | 99 | 1005.3 |
| 20260507045232 | 41 | 238 | 0.0 | 4.0 | 0.00 | 0.65 | 0.00 | 99 | 1005.3 |
| 20260507045128 | 41 | 235 | 0.0 | 4.0 | 0.00 | 0.65 | 0.00 | 99 | 1005.1 |
| 20260507045030 | 41 | 235 | 0.0 | 4.0 | 0.00 | 0.65 | 0.00 | 99 | 1005.1 |
| 20260507044814 | 41 | 332 | 0.0 | 0.0 | 0.00 | 0.65 | 0.00 | 99 | 1005.0 |
| 20260507044712 | 41 | 332 | 0.0 | 0.0 | 0.00 | 0.65 | 0.00 | 99 | 1005.0 |
| 20260507044613 | 41 | 332 | 0.0 | 0.0 | 0.00 | 0.65 | 0.00 | 99 | 1004.9 |
| 20260507044512 | 41 | 332 | 0.0 | 0.0 | 0.00 | 0.65 | 0.00 | 99 | 1004.9 |
| 20260507044309 | 41 | 332 | 0.0 | 0.0 | 0.00 | 0.65 | 0.00 | 99 | 1004.9 |
| 20260507044206 | 41 | 332 | 0.0 | 0.0 | 0.00 | 0.65 | 0.00 | 99 | 1004.9 |
| 20260507044108 | 41 | 332 | 0.0 | 0.0 | 0.00 | 0.65 | 0.00 | 99 | 1004.9 |
| 20260507044006 | 41 | 332 | 0.0 | 0.0 | 0.00 | 0.65 | 0.00 | 99 | 1004.9 |
| 20260507043804 | 41 | 332 | 0.0 | 0.0 | 0.00 | 0.65 | 0.00 | 99 | 1004.8 |
| 20260507043706 | 41 | 332 | 0.0 | 0.0 | 0.00 | 0.65 | 0.00 | 99 | 1004.8 |
| 20260507043604 | 41 | 332 | 0.0 | 0.0 | 0.00 | 0.65 | 0.00 | 99 | 1004.8 |
| 20260507043530 | 41 | 332 | 0.0 | 0.0 | 0.00 | 0.65 | 0.00 | 99 | 1004.8 |
| 20260507043506 | 41 | 332 | 0.0 | 0.0 | 0.00 | 0.65 | 0.00 | 99 | 1004.8 |
| 20260507043256 | 41 | 332 | 0.0 | 0.0 | 0.00 | 0.65 | 0.00 | 99 | 1004.7 |
| 20260507043154 | 41 | 332 | 0.0 | 5.0 | 0.00 | 0.65 | 0.00 | 99 | 1004.6 |
| 20260507043056 | 41 | 332 | 0.0 | 5.0 | 0.00 | 0.65 | 0.00 | 99 | 1004.5 |
| 20260507042952 | 41 | 332 | 0.0 | 5.0 | 0.00 | 0.65 | 0.00 | 99 | 1004.6 |
| 20260507042751 | 41 | 332 | 0.0 | 5.0 | 0.00 | 0.65 | 0.00 | 99 | 1004.5 |
| 20260507042649 | 41 | 332 | 0.0 | 5.0 | 0.00 | 0.65 | 0.00 | 99 | 1004.5 |
| 20260507042549 | 41 | 332 | 1.0 | 5.0 | 0.00 | 0.65 | 0.00 | 99 | 1004.5 |
| 20260507042446 | 41 | 332 | 1.0 | 5.0 | 0.00 | 0.65 | 0.00 | 98 | 1004.5 |
| 20260507042245 | 42 | 332 | 1.0 | 5.0 | 0.00 | 0.65 | 0.00 | 98 | 1004.4 |
| 20260507042143 | 42 | 332 | 1.0 | 5.0 | 0.00 | 0.65 | 0.00 | 98 | 1004.4 |
| 20260507042042 | 42 | 336 | 2.0 | 7.0 | 0.00 | 0.65 | 0.00 | 98 | 1004.3 |
| 20260507041941 | 42 | 0 | 2.0 | 9.0 | 0.00 | 0.65 | 0.00 | 98 | 1004.3 |
| 20260507041729 | 42 | 15 | 2.0 | 9.0 | 0.00 | 0.65 | 0.00 | 98 | 1004.4 |
| 20260507041628 | 42 | 331 | 2.0 | 9.0 | 0.00 | 0.65 | 0.00 | 98 | 1004.4 |
| 20260507041529 | 42 | 343 | 2.0 | 9.0 | 0.00 | 0.65 | 0.00 | 98 | 1004.4 |
| 20260507041426 | 42 | 319 | 2.0 | 9.0 | 0.00 | 0.65 | 0.00 | 98 | 1004.4 |
| 20260507041222 | 42 | 320 | 2.0 | 9.0 | 0.00 | 0.65 | 0.00 | 98 | 1004.4 |
| 20260507041122 | 42 | 5 | 2.0 | 9.0 | 0.00 | 0.65 | 0.00 | 98 | 1004.4 |
| 20260507041020 | 42 | 315 | 1.0 | 9.0 | 0.00 | 0.65 | 0.00 | 98 | 1004.4 |
| 20260507040921 | 42 | 312 | 1.0 | 5.0 | 0.00 | 0.65 | 0.00 | 98 | 1004.6 |
| 20260507040714 | 42 | 36 | 1.0 | 8.0 | 0.00 | 0.65 | 0.00 | 98 | 1004.7 |
| 20260507040612 | 42 | 294 | 1.0 | 8.0 | 0.00 | 0.65 | 0.00 | 99 | 1004.8 |
| 20260507040513 | 42 | 294 | 1.0 | 8.0 | 0.00 | 0.65 | 0.00 | 99 | 1004.8 |
| 20260507040414 | 42 | 294 | 2.0 | 8.0 | 0.00 | 0.65 | 0.00 | 98 | 1004.9 |
| 20260507040205 | 42 | 335 | 2.0 | 8.0 | 0.00 | 0.65 | 0.00 | 98 | 1005.0 |
| 20260507040104 | 42 | 346 | 2.0 | 8.0 | 0.00 | 0.65 | 0.00 | 98 | 1004.9 |
| 20260507040005 | 42 | 355 | 2.0 | 8.0 | 0.00 | 0.65 | 0.00 | 98 | 1005.0 |
| 20260507035904 | 42 | 348 | 2.0 | 8.0 | 0.01 | 0.65 | 0.65 | 98 | 1004.9 |
| 20260507035701 | 42 | 5 | 2.0 | 7.0 | 0.01 | 0.65 | 0.65 | 99 | 1004.8 |
| 20260507035601 | 42 | 18 | 1.0 | 7.0 | 0.01 | 0.65 | 0.65 | 99 | 1005.0 |
| 20260507035500 | 42 | 285 | 1.0 | 7.0 | 0.01 | 0.65 | 0.65 | 99 | 1005.0 |
| 20260507035400 | 42 | 261 | 1.0 | 7.0 | 0.01 | 0.65 | 0.65 | 99 | 1005.0 |
| 20260507035153 | 42 | 5 | 1.0 | 7.0 | 0.01 | 0.65 | 0.65 | 99 | 1005.1 |
| 20260507035052 | 42 | 326 | 1.0 | 7.0 | 0.01 | 0.65 | 0.65 | 99 | 1005.1 |
| 20260507034953 | 42 | 289 | 1.0 | 7.0 | 0.01 | 0.65 | 0.65 | 99 | 1005.1 |
| 20260507034853 | 42 | 288 | 1.0 | 7.0 | 0.01 | 0.65 | 0.65 | 99 | 1005.1 |
| 20260507034643 | 42 | 289 | 1.0 | 7.0 | 0.01 | 0.65 | 0.65 | 99 | 1005.1 |
| 20260507034541 | 42 | 284 | 2.0 | 7.0 | 0.01 | 0.65 | 0.65 | 99 | 1005.1 |
| 20260507034439 | 42 | 261 | 2.0 | 7.0 | 0.01 | 0.65 | 0.65 | 99 | 1005.1 |
| 20260507034341 | 42 | 309 | 2.0 | 5.0 | 0.01 | 0.65 | 0.65 | 99 | 1005.1 |
| 20260507034132 | 42 | 294 | 1.0 | 5.0 | 0.01 | 0.65 | 0.65 | 99 | 1005.1 |
| 20260507034032 | 42 | 294 | 1.0 | 5.0 | 0.01 | 0.65 | 0.65 | 99 | 1005.1 |
| 20260507033932 | 42 | 311 | 1.0 | 5.0 | 0.01 | 0.65 | 0.65 | 99 | 1005.1 |
| 20260507033833 | 42 | 311 | 1.0 | 5.0 | 0.01 | 0.65 | 0.65 | 99 | 1005.1 |
| 20260507033631 | 42 | 298 | 1.0 | 5.0 | 0.01 | 0.65 | 0.65 | 99 | 1004.9 |
| 20260507033530 | 42 | 296 | 0.0 | 5.0 | 0.01 | 0.65 | 0.65 | 99 | 1004.9 |
| 20260507033430 | 42 | 295 | 0.0 | 3.0 | 0.01 | 0.65 | 0.65 | 99 | 1004.9 |
| 20260507033329 | 42 | 296 | 0.0 | 3.0 | 0.01 | 0.65 | 0.65 | 99 | 1004.9 |
| 20260507033118 | 42 | 291 | 1.0 | 3.0 | 0.01 | 0.65 | 0.65 | 99 | 1004.9 |
| 20260507033016 | 42 | 291 | 1.0 | 3.0 | 0.01 | 0.65 | 0.65 | 99 | 1004.9 |
| 20260507032917 | 42 | 291 | 1.0 | 5.0 | 0.01 | 0.65 | 0.65 | 99 | 1004.9 |
| 20260507032817 | 42 | 294 | 1.0 | 5.0 | 0.01 | 0.65 | 0.65 | 99 | 1004.9 |
| 20260507032612 | 42 | 294 | 2.0 | 9.0 | 0.01 | 0.65 | 0.65 | 99 | 1004.9 |
| 20260507032511 | 42 | 294 | 2.0 | 9.0 | 0.01 | 0.65 | 0.65 | 99 | 1004.9 |
| 20260507032411 | 42 | 294 | 2.0 | 9.0 | 0.01 | 0.65 | 0.65 | 98 | 1004.9 |
| 20260507032311 | 42 | 294 | 2.0 | 9.0 | 0.01 | 0.65 | 0.65 | 98 | 1004.9 |
| 20260507032103 | 42 | 333 | 2.0 | 9.0 | 0.01 | 0.65 | 0.65 | 98 | 1004.9 |
| 20260507032005 | 42 | 323 | 3.0 | 9.0 | 0.01 | 0.65 | 0.65 | 98 | 1004.8 |
| 20260507031905 | 42 | 301 | 2.0 | 9.0 | 0.01 | 0.65 | 0.65 | 98 | 1004.8 |
| 20260507031804 | 42 | 277 | 2.0 | 9.0 | 0.01 | 0.65 | 0.65 | 98 | 1004.8 |
| 20260507031553 | 42 | 323 | 2.0 | 9.0 | 0.01 | 0.65 | 0.65 | 98 | 1004.8 |
| 20260507031455 | 42 | 349 | 2.0 | 9.0 | 0.01 | 0.65 | 0.65 | 98 | 1004.8 |
| 20260507031353 | 42 | 304 | 2.0 | 9.0 | 0.01 | 0.65 | 0.65 | 98 | 1004.8 |
| 20260507031252 | 42 | 313 | 2.0 | 9.0 | 0.01 | 0.65 | 0.65 | 98 | 1004.7 |
| 20260507031050 | 42 | 296 | 2.0 | 9.0 | 0.01 | 0.65 | 0.65 | 98 | 1004.7 |
| 20260507030948 | 42 | 308 | 2.0 | 8.0 | 0.01 | 0.65 | 0.65 | 98 | 1004.7 |
| 20260507030849 | 42 | 296 | 2.0 | 14.0 | 0.01 | 0.65 | 0.65 | 98 | 1004.8 |
| 20260507030746 | 42 | 263 | 2.0 | 14.0 | 0.01 | 0.65 | 0.65 | 98 | 1004.8 |
| 20260507030541 | 43 | 317 | 3.0 | 14.0 | 0.01 | 0.65 | 0.65 | 98 | 1005.0 |
| 20260507030438 | 43 | 309 | 3.0 | 14.0 | 0.01 | 0.65 | 0.65 | 98 | 1004.9 |
| 20260507030339 | 42 | 342 | 3.0 | 14.0 | 0.01 | 0.65 | 0.65 | 98 | 1004.9 |
| 20260507030238 | 43 | 293 | 4.0 | 14.0 | 0.01 | 0.65 | 0.65 | 98 | 1004.8 |
| 20260507030031 | 43 | 267 | 4.0 | 14.0 | 0.01 | 0.65 | 0.65 | 98 | 1004.9 |
| 20260507025932 | 43 | 5 | 4.0 | 12.0 | 0.00 | 0.64 | 0.64 | 98 | 1004.9 |
| 20260507025832 | 43 | 265 | 4.0 | 12.0 | 0.00 | 0.64 | 0.64 | 97 | 1004.9 |
| 20260507025731 | 43 | 301 | 4.0 | 12.0 | 0.01 | 0.64 | 0.64 | 97 | 1004.9 |
| 20260507025524 | 43 | 321 | 3.0 | 12.0 | 0.01 | 0.64 | 0.64 | 98 | 1005.0 |
| 20260507025423 | 43 | 307 | 3.0 | 12.0 | 0.01 | 0.64 | 0.64 | 98 | 1005.0 |
| 20260507025323 | 43 | 298 | 3.0 | 12.0 | 0.01 | 0.64 | 0.64 | 98 | 1005.1 |
| 20260507025223 | 43 | 310 | 3.0 | 12.0 | 0.01 | 0.64 | 0.64 | 98 | 1005.1 |
| 20260507025017 | 43 | 319 | 3.0 | 12.0 | 0.01 | 0.64 | 0.64 | 98 | 1005.1 |
| 20260507024917 | 43 | 309 | 3.0 | 12.0 | 0.01 | 0.64 | 0.64 | 98 | 1005.3 |
| 20260507024817 | 43 | 323 | 3.0 | 12.0 | 0.01 | 0.64 | 0.64 | 98 | 1005.1 |
| 20260507024717 | 43 | 307 | 3.0 | 12.0 | 0.01 | 0.64 | 0.64 | 98 | 1005.1 |
| 20260507024505 | 43 | 327 | 3.0 | 12.0 | 0.01 | 0.64 | 0.64 | 98 | 1005.1 |
| 20260507024441 | 43 | 304 | 3.0 | 12.0 | 0.01 | 0.64 | 0.64 | 98 | 1005.1 |
| 20260507024303 | 43 | 342 | 3.0 | 8.0 | 0.01 | 0.64 | 0.64 | 98 | 1005.0 |
| 20260507024230 | 43 | 300 | 3.0 | 8.0 | 0.01 | 0.64 | 0.64 | 98 | 1005.0 |
| 20260507024207 | 43 | 323 | 3.0 | 11.0 | 0.01 | 0.64 | 0.64 | 98 | 1005.0 |
| 20260507023959 | 43 | 260 | 3.0 | 11.0 | 0.01 | 0.64 | 0.64 | 98 | 1004.9 |
| 20260507023857 | 43 | 319 | 3.0 | 11.0 | 0.01 | 0.64 | 0.64 | 98 | 1004.9 |
| 20260507023757 | 43 | 27 | 3.0 | 11.0 | 0.01 | 0.64 | 0.64 | 98 | 1005.0 |
| 20260507023659 | 43 | 307 | 4.0 | 11.0 | 0.01 | 0.64 | 0.64 | 98 | 1005.0 |
| 20260507023451 | 43 | 284 | 3.0 | 11.0 | 0.02 | 0.64 | 0.64 | 98 | 1005.0 |
| 20260507023349 | 43 | 319 | 3.0 | 11.0 | 0.02 | 0.64 | 0.64 | 98 | 1005.0 |
| 20260507023251 | 43 | 279 | 3.0 | 11.0 | 0.02 | 0.64 | 0.64 | 98 | 1005.0 |
| 20260507022941 | 43 | 287 | 3.0 | 11.0 | 0.02 | 0.64 | 0.64 | 98 | 1005.0 |
| 20260507022840 | 43 | 288 | 3.0 | 11.0 | 0.02 | 0.64 | 0.64 | 98 | 1005.0 |
| 20260507022740 | 43 | 268 | 3.0 | 11.0 | 0.02 | 0.64 | 0.64 | 98 | 1005.0 |
| 20260507022641 | 43 | 306 | 3.0 | 11.0 | 0.02 | 0.64 | 0.64 | 98 | 1004.8 |
| 20260507022436 | 43 | 264 | 3.0 | 11.0 | 0.03 | 0.64 | 0.64 | 98 | 1004.9 |
| 20260507022335 | 43 | 336 | 3.0 | 10.0 | 0.03 | 0.64 | 0.64 | 98 | 1004.8 |
| 20260507022235 | 43 | 295 | 3.0 | 11.0 | 0.03 | 0.64 | 0.64 | 98 | 1004.8 |
| 20260507022136 | 43 | 290 | 3.0 | 11.0 | 0.03 | 0.64 | 0.64 | 98 | 1004.8 |
| 20260507021930 | 43 | 344 | 3.0 | 12.0 | 0.03 | 0.64 | 0.64 | 98 | 1004.8 |
| 20260507021828 | 43 | 306 | 3.0 | 12.0 | 0.03 | 0.64 | 0.64 | 98 | 1004.8 |
| 20260507021729 | 43 | 287 | 3.0 | 12.0 | 0.03 | 0.64 | 0.64 | 98 | 1004.9 |
| 20260507021627 | 44 | 293 | 3.0 | 12.0 | 0.03 | 0.64 | 0.64 | 98 | 1004.8 |
| 20260507021421 | 44 | 281 | 3.0 | 12.0 | 0.03 | 0.64 | 0.64 | 98 | 1004.8 |
| 20260507021319 | 44 | 258 | 3.0 | 12.0 | 0.03 | 0.64 | 0.64 | 98 | 1004.8 |
| 20260507021219 | 44 | 288 | 2.0 | 12.0 | 0.03 | 0.64 | 0.64 | 98 | 1004.9 |
| 20260507021118 | 44 | 297 | 3.0 | 12.0 | 0.03 | 0.64 | 0.64 | 98 | 1004.8 |
| 20260507020914 | 44 | 289 | 2.0 | 12.0 | 0.04 | 0.64 | 0.64 | 98 | 1004.8 |
| 20260507020811 | 44 | 294 | 2.0 | 12.0 | 0.04 | 0.64 | 0.64 | 98 | 1004.8 |
| 20260507020713 | 44 | 317 | 2.0 | 12.0 | 0.04 | 0.64 | 0.64 | 98 | 1004.8 |
| 20260507020613 | 44 | 10 | 2.0 | 12.0 | 0.04 | 0.64 | 0.64 | 98 | 1004.8 |
| 20260507020409 | 44 | 287 | 2.0 | 12.0 | 0.04 | 0.64 | 0.64 | 98 | 1004.9 |
| 20260507020305 | 44 | 348 | 1.0 | 12.0 | 0.04 | 0.64 | 0.64 | 98 | 1004.7 |
| 20260507020207 | 44 | 325 | 1.0 | 12.0 | 0.04 | 0.64 | 0.64 | 98 | 1004.9 |
| 20260507020105 | 45 | 355 | 1.0 | 9.0 | 0.04 | 0.64 | 0.64 | 98 | 1004.9 |
| 20260507015851 | 45 | 13 | 1.0 | 9.0 | 0.04 | 0.64 | 0.64 | 99 | 1004.9 |
| 20260507015753 | 45 | 296 | 0.0 | 6.0 | 0.03 | 0.63 | 0.64 | 99 | 1004.8 |
| 20260507015653 | 45 | 283 | 0.0 | 6.0 | 0.03 | 0.63 | 0.63 | 99 | 1004.9 |
| 20260507015618 | 45 | 281 | 0.0 | 6.0 | 0.03 | 0.63 | 0.63 | 99 | 1004.7 |
| 20260507015556 | 45 | 281 | 0.0 | 6.0 | 0.03 | 0.63 | 0.63 | 99 | 1004.8 |
| 20260507015353 | 45 | 281 | 0.0 | 6.0 | 0.03 | 0.63 | 0.63 | 99 | 1004.9 |
| 20260507015250 | 45 | 280 | 1.0 | 6.0 | 0.03 | 0.63 | 0.63 | 99 | 1004.9 |
| 20260507015151 | 45 | 279 | 1.0 | 6.0 | 0.03 | 0.63 | 0.63 | 99 | 1004.9 |
| 20260507015048 | 45 | 279 | 0.0 | 6.0 | 0.03 | 0.63 | 0.63 | 99 | 1004.9 |
| 20260507014844 | 46 | 290 | 0.0 | 4.0 | 0.04 | 0.63 | 0.63 | 99 | 1004.9 |
| 20260507014744 | 46 | 290 | 1.0 | 4.0 | 0.04 | 0.63 | 0.63 | 99 | 1005.0 |
| 20260507014641 | 46 | 290 | 0.0 | 4.0 | 0.04 | 0.63 | 0.63 | 99 | 1004.9 |
| 20260507014543 | 46 | 290 | 0.0 | 4.0 | 0.04 | 0.63 | 0.63 | 99 | 1004.9 |
| 20260507014329 | 46 | 290 | 0.0 | 4.0 | 0.04 | 0.63 | 0.63 | 99 | 1004.8 |
| 20260507014230 | 46 | 290 | 0.0 | 4.0 | 0.04 | 0.63 | 0.63 | 99 | 1004.8 |
| 20260507014129 | 46 | 313 | 0.0 | 4.0 | 0.04 | 0.63 | 0.63 | 99 | 1004.8 |
| 20260507014030 | 46 | 313 | 0.0 | 4.0 | 0.04 | 0.63 | 0.63 | 99 | 1004.7 |
| 20260507013823 | 46 | 300 | 0.0 | 3.0 | 0.04 | 0.63 | 0.63 | 99 | 1004.7 |
| 20260507013724 | 46 | 306 | 0.0 | 3.0 | 0.04 | 0.63 | 0.63 | 99 | 1004.7 |
| 20260507013624 | 46 | 306 | 0.0 | 3.0 | 0.03 | 0.62 | 0.63 | 99 | 1004.8 |
| 20260507013524 | 46 | 306 | 0.0 | 3.0 | 0.03 | 0.62 | 0.62 | 99 | 1004.8 |
| 20260507013320 | 46 | 306 | 0.0 | 8.0 | 0.03 | 0.62 | 0.62 | 99 | 1004.7 |
| 20260507013217 | 46 | 303 | 1.0 | 8.0 | 0.03 | 0.62 | 0.62 | 99 | 1004.7 |
| 20260507013118 | 46 | 303 | 1.0 | 8.0 | 0.03 | 0.62 | 0.62 | 99 | 1004.7 |
| 20260507013018 | 46 | 303 | 1.0 | 8.0 | 0.03 | 0.62 | 0.62 | 99 | 1004.7 |
| 20260507012807 | 47 | 321 | 0.0 | 8.0 | 0.03 | 0.62 | 0.62 | 99 | 1004.5 |
| 20260507012603 | 47 | 331 | 0.0 | 8.0 | 0.03 | 0.62 | 0.62 | 99 | 1004.4 |
| 20260507012531 | 47 | 306 | 0.0 | 8.0 | 0.02 | 0.61 | 0.62 | 99 | 1004.4 |
| 20260507012508 | 47 | 304 | 0.0 | 3.0 | 0.02 | 0.61 | 0.61 | 99 | 1004.4 |
| 20260507012301 | 47 | 300 | 0.0 | 3.0 | 0.02 | 0.61 | 0.61 | 99 | 1004.4 |
| 20260507012158 | 47 | 275 | 0.0 | 1.0 | 0.02 | 0.61 | 0.61 | 99 | 1004.3 |
| 20260507012058 | 47 | 270 | 0.0 | 1.0 | 0.02 | 0.61 | 0.61 | 99 | 1004.2 |
| 20260507012024 | 47 | 269 | 0.0 | 1.0 | 0.02 | 0.61 | 0.61 | 99 | 1004.2 |
| 20260507011858 | 47 | 234 | 0.0 | 0.0 | 0.02 | 0.61 | 0.61 | 99 | 1004.3 |
| 20260507011758 | 48 | 234 | 0.0 | 2.0 | 0.02 | 0.61 | 0.61 | 99 | 1004.4 |
| 20260507011657 | 48 | 234 | 0.0 | 2.0 | 0.02 | 0.61 | 0.61 | 99 | 1004.4 |
| 20260507011553 | 48 | 233 | 0.0 | 2.0 | 0.02 | 0.61 | 0.61 | 99 | 1004.4 |
| 20260507011453 | 48 | 232 | 0.0 | 2.0 | 0.02 | 0.61 | 0.61 | 99 | 1004.5 |
| 20260507011353 | 48 | 232 | 0.0 | 2.0 | 0.02 | 0.61 | 0.61 | 99 | 1004.4 |
| 20260507011247 | 48 | 233 | 0.0 | 2.0 | 0.02 | 0.61 | 0.61 | 99 | 1004.4 |
| 20260507011147 | 48 | 228 | 0.0 | 2.0 | 0.02 | 0.61 | 0.61 | 99 | 1004.3 |
| 20260507011047 | 48 | 311 | 0.0 | 2.0 | 0.01 | 0.60 | 0.61 | 99 | 1004.3 |
| 20260507010943 | 48 | 322 | 0.0 | 2.0 | 0.01 | 0.60 | 0.60 | 99 | 1004.2 |
| 20260507010843 | 48 | 33 | 0.0 | 2.0 | 0.01 | 0.60 | 0.60 | 99 | 1004.2 |
| 20260507010742 | 48 | 311 | 0.0 | 1.0 | 0.01 | 0.60 | 0.60 | 99 | 1004.2 |
| 20260507010639 | 48 | 311 | 0.0 | 1.0 | 0.01 | 0.60 | 0.60 | 99 | 1004.2 |
| 20260507010537 | 48 | 311 | 0.0 | 1.0 | 0.01 | 0.60 | 0.60 | 99 | 1004.2 |
| 20260507010439 | 49 | 311 | 0.0 | 1.0 | 0.01 | 0.60 | 0.60 | 99 | 1004.2 |
| 20260507010338 | 49 | 311 | 0.0 | 0.0 | 0.01 | 0.60 | 0.60 | 99 | 1004.2 |
| 20260507010236 | 49 | 311 | 0.0 | 0.0 | 0.01 | 0.60 | 0.60 | 99 | 1004.1 |
| 20260507010134 | 49 | 311 | 0.0 | 0.0 | 0.01 | 0.60 | 0.60 | 99 | 1004.1 |
| 20260507010033 | 49 | 311 | 0.0 | 0.0 | 0.01 | 0.60 | 0.60 | 99 | 1004.2 |
| 20260507005933 | 49 | 311 | 0.0 | 0.0 | 0.01 | 0.60 | 0.60 | 99 | 1004.3 |
| 20260507005830 | 49 | 310 | 0.0 | 0.0 | 0.01 | 0.60 | 0.60 | 99 | 1004.2 |
| 20260507005719 | 49 | 310 | 0.0 | 0.0 | 0.01 | 0.60 | 0.60 | 99 | 1004.2 |
| 20260507005616 | 49 | 310 | 0.0 | 0.0 | 0.01 | 0.60 | 0.60 | 99 | 1004.2 |
| 20260507005515 | 49 | 310 | 0.0 | 0.0 | 0.01 | 0.60 | 0.60 | 99 | 1004.1 |
| 20260507005415 | 49 | 310 | 0.0 | 0.0 | 0.01 | 0.60 | 0.60 | 99 | 1004.1 |
| 20260507005317 | 49 | 311 | 0.0 | 0.0 | 0.01 | 0.60 | 0.60 | 99 | 1004.1 |
| 20260507005213 | 49 | 301 | 0.0 | 0.0 | 0.01 | 0.60 | 0.60 | 99 | 1004.2 |
| 20260507005113 | 50 | 301 | 0.0 | 0.0 | 0.01 | 0.60 | 0.60 | 99 | 1004.2 |
| 20260507005015 | 50 | 301 | 0.0 | 0.0 | 0.01 | 0.60 | 0.60 | 99 | 1004.3 |
| 20260507004911 | 50 | 301 | 0.0 | 0.0 | 0.01 | 0.60 | 0.60 | 99 | 1004.4 |
| 20260507004811 | 50 | 301 | 0.0 | 0.0 | 0.00 | 0.59 | 0.60 | 99 | 1004.3 |
| 20260507004711 | 50 | 301 | 0.0 | 0.0 | 0.00 | 0.59 | 0.59 | 99 | 1004.4 |
| 20260507004608 | 50 | 301 | 0.0 | 0.0 | 0.00 | 0.59 | 0.59 | 99 | 1004.4 |
| 20260507004524 | 50 | 301 | 0.0 | 0.0 | 0.00 | 0.59 | 0.59 | 99 | 1004.3 |
| 20260507004504 | 50 | 316 | 0.0 | 0.0 | 0.00 | 0.59 | 0.59 | 100 | 1004.2 |
| 20260507004304 | 50 | 317 | 0.0 | 0.0 | 0.00 | 0.59 | 0.59 | 100 | 1004.1 |
| 20260507004157 | 50 | 316 | 0.0 | 0.0 | 0.00 | 0.59 | 0.59 | 100 | 1004.1 |
| 20260507004058 | 50 | 317 | 0.0 | 0.0 | 0.00 | 0.59 | 0.59 | 100 | 1004.1 |
| 20260507003957 | 50 | 313 | 0.0 | 0.0 | 0.00 | 0.59 | 0.59 | 100 | 1004.0 |
| 20260507003755 | 50 | 313 | 0.0 | 0.0 | 0.00 | 0.59 | 0.59 | 100 | 1004.0 |
| 20260507003652 | 50 | 306 | 0.0 | 0.0 | 0.00 | 0.59 | 0.59 | 100 | 1004.0 |
| 20260507003551 | 50 | 279 | 0.0 | 0.0 | 0.00 | 0.59 | 0.59 | 100 | 1004.0 |
| 20260507003452 | 50 | 279 | 0.0 | 0.0 | 0.00 | 0.59 | 0.59 | 100 | 1004.0 |
| 20260507003349 | 50 | 279 | 0.0 | 0.0 | 0.00 | 0.59 | 0.59 | 100 | 1004.0 |
| 20260507003248 | 50 | 279 | 0.0 | 0.0 | 0.00 | 0.59 | 0.59 | 100 | 1004.0 |
| 20260507003144 | 50 | 279 | 0.0 | 2.0 | 0.00 | 0.59 | 0.59 | 100 | 1004.0 |
| 20260507003041 | 50 | 279 | 0.0 | 2.0 | 0.00 | 0.59 | 0.59 | 100 | 1003.9 |
| 20260507002943 | 50 | 279 | 0.0 | 2.0 | 0.00 | 0.59 | 0.59 | 100 | 1003.9 |
| 20260507002839 | 50 | 279 | 0.0 | 2.0 | 0.00 | 0.59 | 0.59 | 100 | 1004.0 |
| 20260507002741 | 50 | 279 | 0.0 | 2.0 | 0.00 | 0.59 | 0.59 | 100 | 1003.9 |
| 20260507002629 | 50 | 279 | 0.0 | 2.0 | 0.00 | 0.59 | 0.59 | 99 | 1004.0 |
| 20260507002529 | 50 | 279 | 0.0 | 2.0 | 0.00 | 0.59 | 0.59 | 99 | 1003.9 |
| 20260507002430 | 50 | 279 | 0.0 | 2.0 | 0.00 | 0.59 | 0.59 | 99 | 1003.9 |
| 20260507002327 | 50 | 279 | 0.0 | 2.0 | 0.00 | 0.59 | 0.59 | 99 | 1003.9 |
| 20260507002226 | 50 | 279 | 0.0 | 2.0 | 0.00 | 0.59 | 0.59 | 99 | 1003.9 |
| 20260507002119 | 50 | 204 | 0.0 | 1.0 | 0.00 | 0.59 | 0.59 | 100 | 1003.9 |
| 20260507002020 | 50 | 204 | 0.0 | 0.0 | 0.00 | 0.59 | 0.59 | 100 | 1003.9 |
| 20260507001921 | 50 | 205 | 0.0 | 0.0 | 0.00 | 0.59 | 0.59 | 100 | 1004.0 |
| 20260507001819 | 50 | 204 | 0.0 | 0.0 | 0.00 | 0.59 | 0.59 | 100 | 1004.0 |
| 20260507001721 | 50 | 204 | 0.0 | 0.0 | 0.00 | 0.59 | 0.59 | 100 | 1003.8 |
| 20260507001615 | 50 | 205 | 0.0 | 0.0 | 0.00 | 0.59 | 0.59 | 100 | 1003.8 |
| 20260507001515 | 50 | 204 | 0.0 | 1.0 | 0.00 | 0.59 | 0.59 | 100 | 1003.8 |
| 20260507001414 | 50 | 204 | 0.0 | 1.0 | 0.00 | 0.59 | 0.59 | 100 | 1003.8 |
| 20260507001315 | 50 | 205 | 0.0 | 1.0 | 0.00 | 0.59 | 0.59 | 100 | 1003.8 |
| 20260507001215 | 50 | 204 | 0.0 | 1.0 | 0.00 | 0.59 | 0.59 | 100 | 1003.7 |
| 20260507001108 | 50 | 205 | 0.0 | 1.0 | 0.00 | 0.59 | 0.59 | 100 | 1003.6 |
| 20260507001015 | 50 | 204 | 0.0 | 3.0 | 0.00 | 0.59 | 0.59 | 99 | 1003.5 |
| 20260507000955 | 50 | 204 | 0.0 | 3.0 | 0.00 | 0.59 | 0.59 | 100 | 1003.5 |
| 20260507000806 | 50 | 204 | 0.0 | 3.0 | 0.00 | 0.59 | 0.59 | 100 | 1003.5 |
| 20260507000704 | 50 | 204 | 0.0 | 3.0 | 0.00 | 0.59 | 0.59 | 100 | 1003.6 |
| 20260507000601 | 50 | 205 | 0.0 | 3.0 | 0.00 | 0.59 | 0.59 | 100 | 1003.7 |
| 20260507000501 | 51 | 206 | 0.0 | 3.0 | 0.00 | 0.59 | 0.59 | 100 | 1003.7 |
| 20260507000405 | 51 | 205 | 0.0 | 3.0 | 0.00 | 0.59 | 0.59 | 100 | 1003.7 |
| 20260507000301 | 51 | 205 | 0.0 | 3.0 | 0.00 | 0.59 | 0.59 | 100 | 1003.7 |
| 20260507000159 | 51 | 206 | 0.0 | 3.0 | 0.00 | 0.59 | 0.59 | 100 | 1003.7 |
| 20260507000055 | 51 | 203 | 0.0 | 3.0 | 0.00 | 0.59 | 0.59 | 99 | 1003.6 |
| 20260506235952 | 51 | 215 | 0.0 | 3.0 | 0.00 | 0.59 | 0.59 | 99 | 1003.6 |
| 20260506235750 | 51 | 221 | 0.0 | 3.0 | 0.00 | 0.59 | 0.59 | 99 | 1003.5 |
| 20260506235651 | 51 | 221 | 0.0 | 3.0 | 0.00 | 0.59 | 0.59 | 99 | 1003.6 |
| 20260506235542 | 51 | 346 | 0.0 | 1.0 | 0.00 | 0.59 | 0.59 | 99 | 1003.5 |
| 20260506235505 | 51 | 11 | 0.0 | 2.0 | 0.00 | 0.59 | 0.59 | 99 | 1003.5 |
| 20260506235340 | 51 | 11 | 0.0 | 2.0 | 0.00 | 0.59 | 0.59 | 99 | 1003.5 |
| 20260506235237 | 51 | 11 | 0.0 | 5.0 | 0.00 | 0.59 | 0.59 | 99 | 1003.4 |
| 20260506235136 | 51 | 11 | 0.0 | 5.0 | 0.00 | 0.59 | 0.59 | 99 | 1003.4 |
| 20260506235035 | 52 | 0 | 0.0 | 5.0 | 0.00 | 0.59 | 0.59 | 99 | 1003.5 |
| 20260506234934 | 52 | 0 | 0.0 | 5.0 | 0.00 | 0.59 | 0.59 | 99 | 1003.4 |
| 20260506234833 | 52 | 0 | 0.0 | 5.0 | 0.00 | 0.59 | 0.59 | 100 | 1003.4 |
| 20260506234732 | 52 | 0 | 0.0 | 5.0 | 0.00 | 0.59 | 0.59 | 100 | 1003.4 |
| 20260506234631 | 52 | 0 | 0.0 | 5.0 | 0.00 | 0.59 | 0.59 | 100 | 1003.4 |
| 20260506234525 | 52 | 5 | 0.0 | 5.0 | 0.00 | 0.59 | 0.59 | 100 | 1003.3 |
| 20260506234423 | 52 | 338 | 0.0 | 5.0 | 0.00 | 0.59 | 0.59 | 100 | 1003.4 |
| 20260506234324 | 52 | 338 | 0.0 | 5.0 | 0.00 | 0.59 | 0.59 | 100 | 1003.3 |
| 20260506234221 | 53 | 145 | 0.0 | 1.0 | 0.00 | 0.59 | 0.59 | 100 | 1003.3 |
| 20260506234122 | 53 | 145 | 0.0 | 1.0 | 0.00 | 0.59 | 0.59 | 100 | 1003.2 |
| 20260506234014 | 53 | 145 | 0.0 | 1.0 | 0.00 | 0.59 | 0.59 | 100 | 1003.2 |
| 20260506233912 | 53 | 145 | 0.0 | 1.0 | 0.00 | 0.59 | 0.59 | 100 | 1003.1 |
| 20260506233811 | 53 | 145 | 0.0 | 1.0 | 0.00 | 0.59 | 0.59 | 100 | 1003.2 |
| 20260506233713 | 53 | 145 | 0.0 | 1.0 | 0.00 | 0.59 | 0.59 | 100 | 1003.2 |
| 20260506233612 | 53 | 145 | 0.0 | 0.0 | 0.00 | 0.59 | 0.59 | 100 | 1003.2 |
| 20260506233506 | 53 | 145 | 0.0 | 0.0 | 0.00 | 0.59 | 0.59 | 100 | 1003.1 |
| 20260506233405 | 53 | 145 | 0.0 | 1.0 | 0.00 | 0.59 | 0.59 | 100 | 1003.2 |
| 20260506233307 | 53 | 145 | 0.0 | 1.0 | 0.00 | 0.59 | 0.59 | 100 | 1003.1 |
| 20260506233205 | 53 | 145 | 0.0 | 1.0 | 0.00 | 0.59 | 0.59 | 100 | 1003.1 |
| 20260506233106 | 54 | 145 | 0.0 | 1.0 | 0.00 | 0.59 | 0.59 | 100 | 1003.1 |
| 20260506233006 | 54 | 145 | 0.0 | 1.0 | 0.00 | 0.59 | 0.59 | 100 | 1003.1 |
| 20260506232904 | 54 | 145 | 0.0 | 1.0 | 0.00 | 0.59 | 0.59 | 100 | 1003.1 |
| 20260506232804 | 54 | 145 | 0.0 | 1.0 | 0.00 | 0.59 | 0.59 | 100 | 1003.1 |
| 20260506232703 | 54 | 145 | 0.0 | 1.0 | 0.01 | 0.59 | 0.59 | 100 | 1003.1 |
| 20260506232600 | 54 | 145 | 0.0 | 1.0 | 0.02 | 0.59 | 0.59 | 100 | 1003.1 |
| 20260506232452 | 54 | 145 | 0.0 | 1.0 | 0.03 | 0.59 | 0.59 | 100 | 1003.1 |
| 20260506232253 | 54 | 145 | 0.0 | 2.0 | 0.04 | 0.59 | 0.59 | 100 | 1003.1 |
| 20260506232151 | 54 | 145 | 0.0 | 2.0 | 0.05 | 0.59 | 0.59 | 100 | 1003.0 |
| 20260506232051 | 54 | 145 | 0.0 | 2.0 | 0.06 | 0.59 | 0.59 | 100 | 1003.0 |
| 20260506231952 | 54 | 145 | 0.0 | 2.0 | 0.08 | 0.59 | 0.59 | 100 | 1003.0 |
| 20260506231749 | 55 | 146 | 0.0 | 2.0 | 0.08 | 0.59 | 0.59 | 100 | 1003.0 |
| 20260506231649 | 55 | 146 | 0.0 | 2.0 | 0.09 | 0.59 | 0.59 | 100 | 1003.1 |
| 20260506231549 | 55 | 146 | 0.0 | 2.0 | 0.09 | 0.59 | 0.59 | 100 | 1003.1 |
| 20260506231451 | 55 | 141 | 0.0 | 2.0 | 0.10 | 0.59 | 0.59 | 100 | 1003.1 |
| 20260506231251 | 55 | 175 | 0.0 | 2.0 | 0.11 | 0.59 | 0.59 | 100 | 1003.1 |
| 20260506231149 | 55 | 175 | 0.0 | 2.0 | 0.12 | 0.59 | 0.59 | 100 | 1003.1 |
| 20260506231050 | 55 | 175 | 0.0 | 2.0 | 0.12 | 0.59 | 0.59 | 100 | 1003.0 |
| 20260506230950 | 55 | 151 | 0.0 | 2.0 | 0.12 | 0.59 | 0.59 | 100 | 1003.1 |
| 20260506230848 | 55 | 151 | 0.0 | 2.0 | 0.13 | 0.59 | 0.59 | 100 | 1003.1 |
| 20260506230649 | 56 | 149 | 0.0 | 2.0 | 0.13 | 0.59 | 0.59 | 100 | 1003.1 |
| 20260506230551 | 56 | 142 | 0.0 | 2.0 | 0.13 | 0.59 | 0.59 | 100 | 1003.1 |
| 20260506230449 | 56 | 162 | 0.0 | 0.0 | 0.13 | 0.59 | 0.59 | 100 | 1003.1 |
| 20260506230249 | 56 | 117 | 0.0 | 0.0 | 0.14 | 0.59 | 0.59 | 100 | 1003.1 |
| 20260506230151 | 56 | 117 | 0.0 | 0.0 | 0.14 | 0.59 | 0.59 | 100 | 1003.1 |
| 20260506230049 | 56 | 117 | 0.0 | 0.0 | 0.14 | 0.59 | 0.59 | 100 | 1003.0 |
| 20260506225950 | 56 | 112 | 0.0 | 0.0 | 0.14 | 0.59 | 0.59 | 100 | 1003.0 |
| 20260506225746 | 56 | 111 | 0.0 | 0.0 | 0.15 | 0.59 | 0.59 | 100 | 1003.0 |
| 20260506225645 | 56 | 111 | 0.0 | 0.0 | 0.15 | 0.59 | 0.59 | 100 | 1003.0 |
| 20260506225547 | 56 | 114 | 0.0 | 0.0 | 0.15 | 0.59 | 0.59 | 100 | 1003.0 |
| 20260506225446 | 56 | 115 | 0.0 | 0.0 | 0.15 | 0.59 | 0.59 | 100 | 1003.0 |
| 20260506225247 | 56 | 115 | 0.0 | 0.0 | 0.16 | 0.59 | 0.59 | 100 | 1003.0 |
| 20260506225142 | 56 | 115 | 0.0 | 1.0 | 0.17 | 0.59 | 0.59 | 100 | 1002.9 |
| 20260506225042 | 56 | 115 | 0.0 | 1.0 | 0.17 | 0.59 | 0.59 | 100 | 1002.9 |
| 20260506224943 | 56 | 115 | 0.0 | 1.0 | 0.18 | 0.59 | 0.59 | 100 | 1002.9 |
| 20260506224742 | 56 | 115 | 0.0 | 1.0 | 0.18 | 0.59 | 0.59 | 100 | 1002.9 |
| 20260506224643 | 56 | 115 | 0.0 | 1.0 | 0.18 | 0.59 | 0.59 | 100 | 1002.8 |
| 20260506224541 | 56 | 115 | 0.0 | 1.0 | 0.18 | 0.59 | 0.59 | 100 | 1002.8 |
| 20260506224441 | 56 | 115 | 0.0 | 1.0 | 0.18 | 0.59 | 0.59 | 100 | 1002.9 |
| 20260506224242 | 56 | 115 | 0.0 | 1.0 | 0.18 | 0.59 | 0.59 | 100 | 1002.9 |
| 20260506224141 | 56 | 83 | 0.0 | 1.0 | 0.18 | 0.59 | 0.59 | 100 | 1002.9 |
| 20260506224041 | 56 | 83 | 0.0 | 1.0 | 0.19 | 0.59 | 0.59 | 100 | 1002.8 |
| 20260506223941 | 56 | 83 | 0.0 | 1.0 | 0.19 | 0.59 | 0.59 | 100 | 1002.8 |
| 20260506223741 | 56 | 82 | 0.0 | 2.0 | 0.20 | 0.59 | 0.59 | 100 | 1002.9 |
| 20260506223643 | 56 | 34 | 0.0 | 7.0 | 0.20 | 0.59 | 0.59 | 100 | 1002.9 |
| 20260506223541 | 56 | 34 | 0.0 | 7.0 | 0.20 | 0.59 | 0.59 | 100 | 1002.9 |
| 20260506223443 | 56 | 34 | 0.0 | 7.0 | 0.20 | 0.59 | 0.59 | 100 | 1002.9 |
| 20260506223342 | 56 | 34 | 0.0 | 7.0 | 0.20 | 0.59 | 0.59 | 100 | 1002.9 |
| 20260506223241 | 56 | 33 | 0.0 | 7.0 | 0.20 | 0.59 | 0.59 | 100 | 1003.0 |
| 20260506223143 | 56 | 34 | 0.0 | 7.0 | 0.21 | 0.59 | 0.59 | 100 | 1002.9 |
| 20260506223041 | 56 | 34 | 0.0 | 7.0 | 0.22 | 0.59 | 0.59 | 100 | 1002.9 |
| 20260506223004 | 56 | 49 | 0.0 | 7.0 | 0.22 | 0.59 | 0.59 | 100 | 1002.9 |
| 20260506222942 | 56 | 355 | 0.0 | 7.0 | 0.22 | 0.59 | 0.59 | 100 | 1002.9 |
| 20260506222742 | 56 | 355 | 0.0 | 7.0 | 0.22 | 0.58 | 0.59 | 100 | 1002.9 |
| 20260506222642 | 56 | 49 | 0.0 | 6.0 | 0.22 | 0.58 | 0.58 | 100 | 1003.0 |
| 20260506222542 | 56 | 226 | 0.0 | 6.0 | 0.22 | 0.57 | 0.58 | 100 | 1002.9 |
| 20260506222442 | 56 | 294 | 0.0 | 6.0 | 0.21 | 0.56 | 0.57 | 100 | 1003.0 |
| 20260506222242 | 56 | 294 | 0.0 | 6.0 | 0.21 | 0.55 | 0.55 | 100 | 1002.9 |
| 20260506222142 | 56 | 294 | 0.0 | 6.0 | 0.20 | 0.54 | 0.55 | 100 | 1002.8 |
| 20260506222040 | 56 | 263 | 1.0 | 6.0 | 0.20 | 0.53 | 0.54 | 100 | 1002.8 |
| 20260506221941 | 56 | 261 | 1.0 | 6.0 | 0.18 | 0.51 | 0.52 | 100 | 1002.8 |
| 20260506221742 | 56 | 279 | 1.0 | 7.0 | 0.18 | 0.51 | 0.51 | 100 | 1002.6 |
| 20260506221641 | 56 | 190 | 2.0 | 7.0 | 0.18 | 0.50 | 0.50 | 100 | 1002.6 |
| 20260506221542 | 56 | 134 | 2.0 | 7.0 | 0.18 | 0.50 | 0.50 | 100 | 1002.5 |
| 20260506221442 | 56 | 148 | 2.0 | 7.0 | 0.17 | 0.49 | 0.50 | 100 | 1002.6 |
| 20260506221343 | 56 | 155 | 2.0 | 7.0 | 0.17 | 0.49 | 0.49 | 100 | 1002.5 |
| 20260506221242 | 56 | 119 | 2.0 | 7.0 | 0.16 | 0.48 | 0.48 | 100 | 1002.5 |
| 20260506221208 | 56 | 180 | 2.0 | 7.0 | 0.16 | 0.47 | 0.48 | 100 | 1002.5 |
| 20260506221043 | 56 | 130 | 2.0 | 7.0 | 0.16 | 0.47 | 0.47 | 100 | 1002.5 |
| 20260506221001 | 56 | 136 | 2.0 | 7.0 | 0.16 | 0.47 | 0.47 | 100 | 1002.6 |
| 20260506220941 | 56 | 126 | 1.0 | 7.0 | 0.15 | 0.46 | 0.46 | 100 | 1002.6 |
| 20260506220741 | 56 | 151 | 1.0 | 6.0 | 0.15 | 0.46 | 0.46 | 100 | 1002.6 |
| 20260506220641 | 56 | 126 | 1.0 | 6.0 | 0.16 | 0.46 | 0.46 | 100 | 1002.6 |
| 20260506220543 | 56 | 138 | 1.0 | 6.0 | 0.16 | 0.46 | 0.46 | 100 | 1002.6 |
| 20260506220437 | 56 | 163 | 1.0 | 6.0 | 0.15 | 0.46 | 0.46 | 100 | 1002.6 |
| 20260506220237 | 56 | 171 | 1.0 | 7.0 | 0.15 | 0.46 | 0.45 | 100 | 1002.6 |
| 20260506220138 | 56 | 123 | 1.0 | 7.0 | 0.15 | 0.47 | 0.45 | 100 | 1002.6 |
| 20260506220037 | 56 | 150 | 1.0 | 7.0 | 0.15 | 0.47 | 0.45 | 100 | 1002.6 |
| 20260506215937 | 56 | 160 | 1.0 | 7.0 | 0.15 | 0.47 | 0.45 | 100 | 1002.6 |
| 20260506215736 | 56 | 139 | 1.0 | 7.0 | 0.14 | 0.47 | 0.45 | 100 | 1002.8 |
| 20260506215634 | 56 | 180 | 0.0 | 7.0 | 0.14 | 0.48 | 0.44 | 100 | 1002.8 |
| 20260506215535 | 56 | 136 | 0.0 | 7.0 | 0.14 | 0.48 | 0.44 | 100 | 1002.8 |
| 20260506215435 | 56 | 122 | 0.0 | 7.0 | 0.14 | 0.48 | 0.44 | 100 | 1002.8 |
| 20260506215230 | 56 | 138 | 0.0 | 6.0 | 0.13 | 0.48 | 0.44 | 100 | 1002.8 |
| 20260506215125 | 56 | 142 | 1.0 | 6.0 | 0.12 | 0.47 | 0.43 | 100 | 1002.8 |
| 20260506215024 | 56 | 155 | 1.0 | 6.0 | 0.12 | 0.48 | 0.42 | 100 | 1002.8 |
| 20260506214921 | 56 | 153 | 1.0 | 6.0 | 0.11 | 0.47 | 0.42 | 100 | 1002.8 |
| 20260506214719 | 56 | 167 | 1.0 | 6.0 | 0.12 | 0.48 | 0.41 | 100 | 1002.8 |
| 20260506214617 | 56 | 143 | 1.0 | 6.0 | 0.12 | 0.48 | 0.41 | 100 | 1002.8 |
| 20260506214517 | 56 | 133 | 1.0 | 6.0 | 0.12 | 0.48 | 0.41 | 100 | 1002.8 |
| 20260506214418 | 56 | 174 | 1.0 | 8.0 | 0.12 | 0.48 | 0.41 | 100 | 1002.8 |
| 20260506214211 | 56 | 137 | 1.0 | 8.0 | 0.12 | 0.48 | 0.41 | 100 | 1002.8 |
| 20260506214111 | 56 | 163 | 1.0 | 8.0 | 0.12 | 0.48 | 0.41 | 100 | 1002.8 |
| 20260506214011 | 56 | 157 | 1.0 | 8.0 | 0.11 | 0.48 | 0.41 | 100 | 1002.8 |
| 20260506213913 | 56 | 164 | 2.0 | 8.0 | 0.12 | 0.48 | 0.40 | 100 | 1002.9 |
| 20260506213700 | 56 | 150 | 2.0 | 8.0 | 0.11 | 0.47 | 0.40 | 100 | 1002.9 |
| 20260506213559 | 56 | 146 | 2.0 | 8.0 | 0.11 | 0.47 | 0.39 | 100 | 1002.9 |
| 20260506213458 | 56 | 144 | 2.0 | 8.0 | 0.11 | 0.47 | 0.39 | 100 | 1002.9 |
| 20260506213400 | 56 | 132 | 2.0 | 8.0 | 0.11 | 0.47 | 0.39 | 100 | 1002.9 |
| 20260506213153 | 56 | 140 | 2.0 | 8.0 | 0.10 | 0.47 | 0.38 | 100 | 1002.9 |
| 20260506213054 | 56 | 202 | 2.0 | 8.0 | 0.09 | 0.46 | 0.38 | 100 | 1003.0 |
| 20260506212954 | 56 | 192 | 1.0 | 8.0 | 0.09 | 0.46 | 0.37 | 100 | 1003.0 |
| 20260506212854 | 56 | 134 | 1.0 | 6.0 | 0.09 | 0.46 | 0.37 | 100 | 1003.0 |
| 20260506212650 | 56 | 128 | 1.0 | 6.0 | 0.08 | 0.45 | 0.36 | 100 | 1003.1 |
| 20260506212627 | 56 | 138 | 1.0 | 6.0 | 0.07 | 0.44 | 0.35 | 100 | 1003.1 |
| 20260506212448 | 56 | 170 | 1.0 | 7.0 | 0.07 | 0.44 | 0.35 | 100 | 1003.0 |
| 20260506212413 | 56 | 147 | 1.0 | 7.0 | 0.06 | 0.43 | 0.35 | 100 | 1003.0 |
| 20260506212351 | 56 | 109 | 2.0 | 7.0 | 0.06 | 0.43 | 0.34 | 100 | 1003.1 |
| 20260506212135 | 56 | 162 | 2.0 | 11.0 | 0.06 | 0.43 | 0.34 | 100 | 1003.1 |
| 20260506212037 | 56 | 171 | 2.0 | 11.0 | 0.05 | 0.42 | 0.34 | 100 | 1003.0 |
| 20260506211836 | 56 | 150 | 2.0 | 11.0 | 0.05 | 0.42 | 0.33 | 100 | 1003.0 |
| 20260506211630 | 56 | 169 | 2.0 | 11.0 | 0.04 | 0.41 | 0.32 | 100 | 1003.0 |
| 20260506211527 | 56 | 153 | 3.0 | 11.0 | 0.05 | 0.41 | 0.32 | 100 | 1003.1 |
| 20260506211426 | 56 | 161 | 3.0 | 11.0 | 0.05 | 0.41 | 0.32 | 100 | 1003.1 |
| 20260506211328 | 56 | 157 | 3.0 | 11.0 | 0.05 | 0.41 | 0.32 | 100 | 1003.1 |
| 20260506211124 | 56 | 134 | 2.0 | 10.0 | 0.04 | 0.40 | 0.32 | 100 | 1003.0 |
| 20260506211021 | 56 | 139 | 2.0 | 8.0 | 0.04 | 0.40 | 0.31 | 100 | 1003.1 |
| 20260506210922 | 56 | 133 | 2.0 | 8.0 | 0.04 | 0.40 | 0.31 | 100 | 1003.1 |
| 20260506210849 | 56 | 155 | 2.0 | 8.0 | 0.04 | 0.40 | 0.31 | 100 | 1003.1 |
| 20260506210826 | 56 | 159 | 2.0 | 7.0 | 0.03 | 0.39 | 0.31 | 100 | 1003.1 |
| 20260506210611 | 56 | 129 | 2.0 | 7.0 | 0.03 | 0.39 | 0.30 | 100 | 1003.1 |
| 20260506210511 | 56 | 132 | 2.0 | 7.0 | 0.03 | 0.39 | 0.30 | 100 | 1003.2 |
| 20260506210412 | 56 | 198 | 2.0 | 7.0 | 0.03 | 0.39 | 0.30 | 100 | 1003.1 |
| 20260506210311 | 56 | 146 | 2.0 | 7.0 | 0.03 | 0.39 | 0.30 | 100 | 1003.1 |
| 20260506210106 | 56 | 167 | 2.0 | 7.0 | 0.03 | 0.39 | 0.30 | 100 | 1003.1 |
| 20260506210006 | 56 | 132 | 2.0 | 7.0 | 0.03 | 0.39 | 0.30 | 100 | 1003.2 |
| 20260506205905 | 56 | 164 | 2.0 | 7.0 | 0.03 | 0.39 | 0.30 | 100 | 1003.2 |
| 20260506205805 | 56 | 155 | 2.0 | 7.0 | 0.03 | 0.39 | 0.30 | 100 | 1003.2 |
| 20260506205600 | 56 | 175 | 2.0 | 7.0 | 0.03 | 0.39 | 0.30 | 100 | 1003.2 |
| 20260506205459 | 56 | 130 | 2.0 | 7.0 | 0.03 | 0.39 | 0.30 | 100 | 1003.2 |
| 20260506205400 | 56 | 156 | 2.0 | 7.0 | 0.03 | 0.39 | 0.30 | 100 | 1003.2 |
| 20260506205259 | 56 | 144 | 2.0 | 7.0 | 0.03 | 0.39 | 0.30 | 100 | 1003.2 |
| 20260506205046 | 56 | 153 | 2.0 | 6.0 | 0.03 | 0.39 | 0.30 | 100 | 1003.3 |
| 20260506204947 | 56 | 151 | 2.0 | 8.0 | 0.03 | 0.39 | 0.30 | 100 | 1003.2 |
| 20260506204847 | 56 | 139 | 2.0 | 8.0 | 0.02 | 0.38 | 0.30 | 100 | 1003.3 |
| 20260506204747 | 56 | 143 | 2.0 | 8.0 | 0.02 | 0.38 | 0.29 | 100 | 1003.3 |
| 20260506204540 | 56 | 155 | 2.0 | 8.0 | 0.02 | 0.38 | 0.29 | 100 | 1003.4 |
| 20260506204440 | 56 | 180 | 2.0 | 8.0 | 0.02 | 0.38 | 0.29 | 100 | 1003.4 |
| 20260506204339 | 56 | 142 | 2.0 | 8.0 | 0.02 | 0.38 | 0.29 | 100 | 1003.4 |
| 20260506204240 | 56 | 140 | 2.0 | 8.0 | 0.02 | 0.38 | 0.29 | 100 | 1003.4 |
| 20260506204037 | 56 | 144 | 1.0 | 8.0 | 0.02 | 0.38 | 0.29 | 100 | 1003.3 |
| 20260506203937 | 56 | 170 | 2.0 | 7.0 | 0.01 | 0.37 | 0.29 | 100 | 1003.4 |
| 20260506203836 | 56 | 155 | 2.0 | 7.0 | 0.01 | 0.37 | 0.28 | 100 | 1003.4 |
| 20260506203736 | 56 | 138 | 2.0 | 7.0 | 0.01 | 0.37 | 0.28 | 100 | 1003.4 |
| 20260506203528 | 56 | 144 | 2.0 | 7.0 | 0.02 | 0.37 | 0.28 | 100 | 1003.4 |
| 20260506203428 | 56 | 140 | 2.0 | 7.0 | 0.02 | 0.37 | 0.28 | 100 | 1003.4 |
| 20260506203324 | 56 | 143 | 2.0 | 7.0 | 0.02 | 0.37 | 0.28 | 100 | 1003.4 |
| 20260506203226 | 56 | 138 | 2.0 | 7.0 | 0.02 | 0.37 | 0.28 | 100 | 1003.4 |
| 20260506203020 | 56 | 137 | 2.0 | 8.0 | 0.02 | 0.37 | 0.28 | 100 | 1003.5 |
| 20260506202918 | 56 | 129 | 2.0 | 8.0 | 0.02 | 0.37 | 0.28 | 100 | 1003.5 |
| 20260506202818 | 56 | 154 | 2.0 | 8.0 | 0.02 | 0.37 | 0.28 | 100 | 1003.5 |
| 20260506202742 | 56 | 187 | 2.0 | 8.0 | 0.02 | 0.37 | 0.28 | 100 | 1003.5 |
| 20260506202721 | 56 | 189 | 2.0 | 8.0 | 0.02 | 0.37 | 0.28 | 100 | 1003.5 |
| 20260506202515 | 56 | 144 | 2.0 | 8.0 | 0.02 | 0.37 | 0.28 | 100 | 1003.5 |
| 20260506202412 | 56 | 169 | 2.0 | 8.0 | 0.02 | 0.37 | 0.28 | 100 | 1003.5 |
| 20260506202310 | 56 | 138 | 2.0 | 8.0 | 0.02 | 0.37 | 0.28 | 100 | 1003.5 |
| 20260506202212 | 56 | 132 | 2.0 | 8.0 | 0.02 | 0.37 | 0.28 | 100 | 1003.5 |
| 20260506202000 | 56 | 184 | 3.0 | 9.0 | 0.02 | 0.37 | 0.28 | 100 | 1003.6 |
| 20260506201857 | 56 | 136 | 2.0 | 9.0 | 0.02 | 0.37 | 0.28 | 100 | 1003.6 |
| 20260506201756 | 56 | 123 | 2.0 | 9.0 | 0.03 | 0.37 | 0.28 | 100 | 1003.6 |
| 20260506201658 | 56 | 163 | 2.0 | 9.0 | 0.03 | 0.37 | 0.28 | 100 | 1003.6 |
| 20260506201451 | 56 | 155 | 2.0 | 9.0 | 0.02 | 0.36 | 0.27 | 100 | 1003.6 |
| 20260506201352 | 56 | 165 | 2.0 | 9.0 | 0.02 | 0.36 | 0.27 | 100 | 1003.7 |
| 20260506201252 | 56 | 183 | 2.0 | 9.0 | 0.02 | 0.36 | 0.27 | 100 | 1003.7 |
| 20260506201153 | 56 | 140 | 2.0 | 9.0 | 0.02 | 0.36 | 0.27 | 100 | 1003.7 |
| 20260506200947 | 56 | 135 | 2.0 | 9.0 | 0.02 | 0.36 | 0.27 | 100 | 1003.6 |
| 20260506200847 | 56 | 171 | 2.0 | 9.0 | 0.02 | 0.36 | 0.27 | 100 | 1003.7 |
| 20260506200748 | 56 | 154 | 2.0 | 9.0 | 0.02 | 0.36 | 0.27 | 100 | 1003.7 |
| 20260506200647 | 56 | 157 | 2.0 | 9.0 | 0.02 | 0.36 | 0.27 | 100 | 1003.7 |
| 20260506200435 | 56 | 161 | 2.0 | 9.0 | 0.03 | 0.36 | 0.27 | 100 | 1003.7 |
| 20260506200335 | 56 | 157 | 2.0 | 9.0 | 0.03 | 0.36 | 0.27 | 100 | 1003.7 |
| 20260506200236 | 56 | 126 | 2.0 | 8.0 | 0.03 | 0.36 | 0.27 | 100 | 1003.7 |
| 20260506200136 | 56 | 171 | 2.0 | 8.0 | 0.03 | 0.36 | 0.27 | 100 | 1003.7 |
| 20260506195930 | 56 | 146 | 2.0 | 8.0 | 0.03 | 0.36 | 0.27 | 100 | 1003.7 |
| 20260506195829 | 56 | 138 | 2.0 | 8.0 | 0.03 | 0.36 | 0.27 | 100 | 1003.7 |
| 20260506195728 | 57 | 168 | 2.0 | 8.0 | 0.03 | 0.36 | 0.27 | 100 | 1003.7 |
| 20260506195630 | 56 | 130 | 2.0 | 8.0 | 0.03 | 0.36 | 0.27 | 100 | 1003.7 |
| 20260506195424 | 57 | 165 | 2.0 | 7.0 | 0.04 | 0.36 | 0.27 | 100 | 1003.8 |
| 20260506195323 | 57 | 131 | 2.0 | 7.0 | 0.04 | 0.36 | 0.27 | 100 | 1003.8 |
| 20260506195224 | 57 | 131 | 2.0 | 6.0 | 0.04 | 0.36 | 0.27 | 100 | 1003.8 |
| 20260506195123 | 57 | 129 | 2.0 | 7.0 | 0.04 | 0.36 | 0.27 | 100 | 1003.8 |
| 20260506194911 | 56 | 143 | 2.0 | 7.0 | 0.04 | 0.36 | 0.27 | 100 | 1003.8 |
| 20260506194811 | 56 | 155 | 1.0 | 7.0 | 0.05 | 0.36 | 0.27 | 100 | 1003.8 |
| 20260506194710 | 56 | 148 | 1.0 | 7.0 | 0.05 | 0.36 | 0.27 | 100 | 1003.9 |
| 20260506194609 | 56 | 123 | 1.0 | 7.0 | 0.05 | 0.36 | 0.27 | 100 | 1003.9 |
| 20260506194402 | 56 | 125 | 1.0 | 7.0 | 0.05 | 0.36 | 0.27 | 100 | 1003.9 |
| 20260506194303 | 56 | 167 | 1.0 | 7.0 | 0.06 | 0.36 | 0.27 | 100 | 1004.0 |
| 20260506194204 | 56 | 186 | 1.0 | 7.0 | 0.06 | 0.36 | 0.27 | 100 | 1003.9 |
| 20260506194104 | 56 | 125 | 1.0 | 7.0 | 0.06 | 0.36 | 0.27 | 100 | 1003.9 |
| 20260506193900 | 56 | 155 | 1.0 | 7.0 | 0.06 | 0.36 | 0.27 | 100 | 1003.9 |
| 20260506193758 | 56 | 152 | 1.0 | 7.0 | 0.06 | 0.36 | 0.27 | 100 | 1003.9 |
| 20260506193658 | 56 | 148 | 1.0 | 7.0 | 0.06 | 0.36 | 0.27 | 100 | 1004.0 |
| 20260506193558 | 56 | 167 | 1.0 | 5.0 | 0.06 | 0.36 | 0.27 | 100 | 1004.0 |
| 20260506193350 | 56 | 161 | 1.0 | 7.0 | 0.06 | 0.35 | 0.26 | 100 | 1004.0 |
| 20260506193247 | 56 | 171 | 1.0 | 7.0 | 0.06 | 0.35 | 0.26 | 100 | 1004.0 |
| 20260506193148 | 56 | 177 | 1.0 | 7.0 | 0.06 | 0.35 | 0.26 | 100 | 1004.0 |
| 20260506193047 | 56 | 181 | 1.0 | 7.0 | 0.06 | 0.35 | 0.26 | 100 | 1004.0 |
| 20260506192847 | 56 | 149 | 1.0 | 7.0 | 0.06 | 0.35 | 0.26 | 100 | 1004.1 |
| 20260506192746 | 56 | 161 | 1.0 | 7.0 | 0.06 | 0.35 | 0.26 | 100 | 1004.0 |
| 20260506192642 | 56 | 144 | 1.0 | 7.0 | 0.06 | 0.35 | 0.26 | 100 | 1004.0 |
| 20260506192544 | 56 | 138 | 1.0 | 7.0 | 0.07 | 0.35 | 0.26 | 100 | 1004.1 |
| 20260506192337 | 56 | 139 | 2.0 | 11.0 | 0.07 | 0.35 | 0.26 | 100 | 1004.1 |
| 20260506192237 | 56 | 141 | 2.0 | 11.0 | 0.07 | 0.35 | 0.26 | 100 | 1004.1 |
| 20260506192137 | 56 | 186 | 2.0 | 11.0 | 0.07 | 0.35 | 0.26 | 100 | 1004.1 |
| 20260506192101 | 56 | 162 | 2.0 | 11.0 | 0.07 | 0.35 | 0.26 | 100 | 1004.1 |
| 20260506192039 | 56 | 163 | 2.0 | 11.0 | 0.08 | 0.35 | 0.26 | 100 | 1004.2 |
| 20260506191821 | 56 | 140 | 2.0 | 11.0 | 0.07 | 0.34 | 0.26 | 100 | 1004.2 |
| 20260506191721 | 56 | 158 | 2.0 | 11.0 | 0.07 | 0.34 | 0.25 | 100 | 1004.1 |
| 20260506191622 | 56 | 173 | 2.0 | 11.0 | 0.07 | 0.34 | 0.25 | 100 | 1004.1 |
| 20260506191520 | 56 | 155 | 2.0 | 11.0 | 0.07 | 0.34 | 0.25 | 100 | 1004.2 |
| 20260506191422 | 56 | 173 | 2.0 | 11.0 | 0.07 | 0.34 | 0.25 | 100 | 1004.2 |
| 20260506191317 | 56 | 142 | 2.0 | 8.0 | 0.08 | 0.34 | 0.25 | 100 | 1004.2 |
| 20260506191216 | 56 | 137 | 2.0 | 8.0 | 0.08 | 0.34 | 0.25 | 100 | 1004.2 |
| 20260506191117 | 56 | 130 | 2.0 | 8.0 | 0.08 | 0.34 | 0.25 | 100 | 1004.2 |
| 20260506191017 | 56 | 123 | 2.0 | 8.0 | 0.08 | 0.34 | 0.25 | 100 | 1004.2 |
| 20260506190915 | 56 | 140 | 2.0 | 8.0 | 0.08 | 0.34 | 0.25 | 100 | 1004.2 |
| 20260506190809 | 56 | 138 | 2.0 | 8.0 | 0.09 | 0.34 | 0.25 | 100 | 1004.2 |
| 20260506190709 | 56 | 101 | 3.0 | 8.0 | 0.09 | 0.34 | 0.25 | 100 | 1004.2 |
| 20260506190610 | 56 | 154 | 3.0 | 8.0 | 0.09 | 0.34 | 0.25 | 100 | 1004.2 |
| 20260506190509 | 56 | 136 | 2.0 | 7.0 | 0.08 | 0.33 | 0.24 | 100 | 1004.2 |
| 20260506190410 | 56 | 126 | 2.0 | 7.0 | 0.08 | 0.33 | 0.24 | 100 | 1004.2 |
| 20260506190300 | 56 | 129 | 2.0 | 7.0 | 0.09 | 0.33 | 0.24 | 100 | 1004.2 |
| 20260506190202 | 56 | 189 | 2.0 | 7.0 | 0.09 | 0.33 | 0.24 | 100 | 1004.2 |
| 20260506190105 | 56 | 131 | 2.0 | 7.0 | 0.09 | 0.33 | 0.24 | 100 | 1004.2 |
| 20260506190042 | 56 | 161 | 2.0 | 7.0 | 0.10 | 0.33 | 0.24 | 100 | 1004.2 |
| 20260506185900 | 56 | 138 | 2.0 | 7.0 | 0.10 | 0.33 | 0.24 | 100 | 1004.2 |
| 20260506185752 | 56 | 150 | 2.0 | 7.0 | 0.10 | 0.33 | 0.24 | 100 | 1004.2 |
| 20260506185654 | 56 | 142 | 2.0 | 9.0 | 0.10 | 0.33 | 0.24 | 100 | 1004.2 |
| 20260506185554 | 56 | 132 | 2.0 | 9.0 | 0.10 | 0.33 | 0.24 | 100 | 1004.3 |
| 20260506185453 | 56 | 163 | 3.0 | 9.0 | 0.10 | 0.32 | 0.23 | 100 | 1004.2 |
| 20260506185354 | 56 | 125 | 3.0 | 9.0 | 0.10 | 0.32 | 0.23 | 100 | 1004.2 |
| 20260506185250 | 56 | 113 | 3.0 | 10.0 | 0.10 | 0.32 | 0.23 | 100 | 1004.4 |
| 20260506185147 | 56 | 177 | 3.0 | 10.0 | 0.10 | 0.32 | 0.23 | 100 | 1004.3 |
| 20260506185048 | 56 | 142 | 3.0 | 10.0 | 0.10 | 0.32 | 0.23 | 100 | 1004.4 |
| 20260506184946 | 56 | 150 | 3.0 | 10.0 | 0.10 | 0.32 | 0.23 | 100 | 1004.4 |
| 20260506184848 | 56 | 148 | 3.0 | 10.0 | 0.09 | 0.31 | 0.22 | 100 | 1004.3 |
| 20260506184734 | 56 | 140 | 3.0 | 10.0 | 0.10 | 0.31 | 0.22 | 100 | 1004.4 |
| 20260506184632 | 56 | 180 | 3.0 | 10.0 | 0.10 | 0.31 | 0.22 | 100 | 1004.2 |
| 20260506184534 | 56 | 163 | 4.0 | 10.0 | 0.10 | 0.31 | 0.22 | 100 | 1004.3 |
| 20260506184230 | 56 | 151 | 3.0 | 10.0 | 0.10 | 0.30 | 0.21 | 100 | 1004.2 |
| 20260506184126 | 56 | 140 | 3.0 | 10.0 | 0.10 | 0.30 | 0.21 | 100 | 1004.2 |
| 20260506184027 | 56 | 135 | 3.0 | 8.0 | 0.10 | 0.30 | 0.21 | 100 | 1004.2 |
| 20260506183928 | 56 | 153 | 3.0 | 8.0 | 0.10 | 0.30 | 0.21 | 100 | 1004.3 |
| 20260506183828 | 56 | 130 | 3.0 | 8.0 | 0.10 | 0.30 | 0.21 | 100 | 1004.3 |
| 20260506183721 | 56 | 150 | 3.0 | 8.0 | 0.11 | 0.30 | 0.21 | 100 | 1004.2 |
| 20260506183622 | 56 | 174 | 3.0 | 8.0 | 0.11 | 0.30 | 0.21 | 100 | 1004.3 |
| 20260506183522 | 56 | 205 | 2.0 | 8.0 | 0.11 | 0.30 | 0.21 | 100 | 1004.2 |
| 20260506183420 | 56 | 147 | 2.0 | 8.0 | 0.10 | 0.29 | 0.20 | 100 | 1004.3 |
| 20260506183321 | 56 | 161 | 2.0 | 8.0 | 0.10 | 0.29 | 0.20 | 100 | 1004.4 |
| 20260506183212 | 56 | 165 | 2.0 | 8.0 | 0.10 | 0.29 | 0.20 | 100 | 1004.3 |
| 20260506183110 | 56 | 172 | 2.0 | 8.0 | 0.10 | 0.29 | 0.20 | 100 | 1004.5 |
| 20260506183012 | 56 | 152 | 1.0 | 6.0 | 0.11 | 0.29 | 0.20 | 100 | 1004.5 |
| 20260506182912 | 56 | 139 | 1.0 | 6.0 | 0.11 | 0.29 | 0.20 | 100 | 1004.5 |
| 20260506182826 | 56 | 154 | 1.0 | 6.0 | 0.11 | 0.29 | 0.20 | 100 | 1004.5 |
| 20260506182803 | 56 | 142 | 1.0 | 6.0 | 0.11 | 0.29 | 0.20 | 100 | 1004.5 |
| 20260506182606 | 56 | 131 | 1.0 | 6.0 | 0.11 | 0.29 | 0.20 | 100 | 1004.5 |
| 20260506182542 | 56 | 135 | 1.0 | 6.0 | 0.10 | 0.28 | 0.19 | 100 | 1004.5 |
| 20260506182405 | 56 | 157 | 1.0 | 8.0 | 0.11 | 0.28 | 0.19 | 100 | 1004.5 |
| 20260506182307 | 56 | 165 | 1.0 | 8.0 | 0.11 | 0.28 | 0.19 | 100 | 1004.5 |
| 20260506182201 | 56 | 164 | 1.0 | 8.0 | 0.11 | 0.28 | 0.19 | 100 | 1004.6 |
| 20260506182102 | 56 | 138 | 1.0 | 8.0 | 0.11 | 0.28 | 0.19 | 100 | 1004.5 |
| 20260506182000 | 56 | 177 | 1.0 | 8.0 | 0.10 | 0.27 | 0.19 | 100 | 1004.6 |
| 20260506181901 | 56 | 133 | 1.0 | 8.0 | 0.10 | 0.27 | 0.18 | 100 | 1004.6 |
| 20260506181800 | 56 | 133 | 1.0 | 8.0 | 0.10 | 0.27 | 0.18 | 100 | 1004.6 |
| 20260506181645 | 56 | 145 | 2.0 | 8.0 | 0.10 | 0.27 | 0.18 | 100 | 1004.7 |
| 20260506181555 | 56 | 157 | 1.0 | 8.0 | 0.10 | 0.27 | 0.18 | 100 | 1004.7 |
| 20260506181534 | 56 | 186 | 1.0 | 8.0 | 0.11 | 0.27 | 0.18 | 100 | 1004.7 |
| 20260506181345 | 56 | 138 | 1.0 | 6.0 | 0.10 | 0.26 | 0.17 | 100 | 1004.7 |
| 20260506181246 | 56 | 140 | 1.0 | 5.0 | 0.10 | 0.26 | 0.17 | 100 | 1004.8 |
| 20260506181140 | 56 | 154 | 1.0 | 5.0 | 0.10 | 0.26 | 0.17 | 100 | 1004.8 |
| 20260506181040 | 56 | 135 | 1.0 | 7.0 | 0.10 | 0.26 | 0.17 | 100 | 1004.8 |
| 20260506180938 | 56 | 133 | 1.0 | 7.0 | 0.11 | 0.26 | 0.17 | 100 | 1004.8 |
| 20260506180840 | 56 | 159 | 1.0 | 7.0 | 0.10 | 0.25 | 0.17 | 100 | 1004.8 |
| 20260506180739 | 56 | 167 | 1.0 | 7.0 | 0.10 | 0.25 | 0.16 | 100 | 1004.9 |
| 20260506180640 | 56 | 185 | 1.0 | 7.0 | 0.10 | 0.25 | 0.16 | 100 | 1004.9 |
| 20260506180538 | 56 | 172 | 1.0 | 7.0 | 0.10 | 0.25 | 0.16 | 100 | 1004.9 |
| 20260506180435 | 56 | 167 | 1.0 | 7.0 | 0.10 | 0.25 | 0.16 | 100 | 1004.9 |
| 20260506180336 | 56 | 161 | 1.0 | 7.0 | 0.09 | 0.24 | 0.16 | 100 | 1004.9 |
| 20260506180234 | 56 | 138 | 1.0 | 7.0 | 0.10 | 0.24 | 0.15 | 99 | 1004.8 |
| 20260506180122 | 56 | 143 | 1.0 | 7.0 | 0.10 | 0.24 | 0.15 | 99 | 1004.9 |
| 20260506180022 | 56 | 143 | 1.0 | 7.0 | 0.09 | 0.23 | 0.15 | 99 | 1005.0 |
| 20260506175924 | 56 | 143 | 1.0 | 7.0 | 0.09 | 0.23 | 0.14 | 99 | 1005.0 |
| 20260506175824 | 56 | 133 | 1.0 | 7.0 | 0.09 | 0.23 | 0.14 | 99 | 1005.0 |
| 20260506175723 | 56 | 131 | 1.0 | 7.0 | 0.09 | 0.23 | 0.14 | 99 | 1005.0 |
| 20260506175617 | 56 | 131 | 1.0 | 7.0 | 0.09 | 0.23 | 0.14 | 99 | 1005.1 |
| 20260506175518 | 56 | 134 | 1.0 | 7.0 | 0.09 | 0.23 | 0.14 | 99 | 1005.0 |
| 20260506175317 | 56 | 167 | 1.0 | 6.0 | 0.08 | 0.22 | 0.13 | 99 | 1005.1 |
| 20260506175217 | 56 | 137 | 1.0 | 5.0 | 0.09 | 0.22 | 0.13 | 99 | 1005.0 |
| 20260506175112 | 56 | 177 | 1.0 | 5.0 | 0.09 | 0.22 | 0.13 | 99 | 1005.0 |
| 20260506175012 | 56 | 178 | 1.0 | 5.0 | 0.09 | 0.22 | 0.13 | 99 | 1005.0 |
| 20260506174910 | 56 | 178 | 1.0 | 5.0 | 0.09 | 0.22 | 0.13 | 99 | 1005.0 |
| 20260506174810 | 56 | 178 | 1.0 | 5.0 | 0.08 | 0.21 | 0.13 | 99 | 1005.0 |
| 20260506174711 | 56 | 163 | 1.0 | 5.0 | 0.08 | 0.21 | 0.12 | 99 | 1005.1 |
| 20260506174603 | 56 | 163 | 0.0 | 5.0 | 0.08 | 0.21 | 0.12 | 99 | 1005.1 |
| 20260506174504 | 56 | 177 | 0.0 | 4.0 | 0.08 | 0.21 | 0.12 | 99 | 1005.0 |
| 20260506174403 | 56 | 177 | 0.0 | 4.0 | 0.08 | 0.21 | 0.12 | 99 | 1005.0 |
| 20260506174303 | 56 | 178 | 0.0 | 4.0 | 0.07 | 0.20 | 0.12 | 99 | 1005.3 |
| 20260506174205 | 56 | 178 | 0.0 | 4.0 | 0.08 | 0.20 | 0.11 | 99 | 1005.1 |
| 20260506174100 | 56 | 178 | 0.0 | 4.0 | 0.08 | 0.20 | 0.11 | 99 | 1005.1 |
| 20260506174001 | 56 | 178 | 0.0 | 4.0 | 0.08 | 0.20 | 0.11 | 99 | 1005.1 |
| 20260506173900 | 56 | 178 | 0.0 | 4.0 | 0.08 | 0.20 | 0.11 | 99 | 1005.1 |
| 20260506173802 | 56 | 178 | 0.0 | 0.0 | 0.08 | 0.20 | 0.11 | 99 | 1005.1 |
| 20260506173700 | 56 | 178 | 0.0 | 0.0 | 0.07 | 0.19 | 0.11 | 99 | 1005.1 |
| 20260506173601 | 56 | 178 | 0.0 | 0.0 | 0.07 | 0.19 | 0.10 | 99 | 1005.3 |
| 20260506173500 | 56 | 178 | 0.0 | 0.0 | 0.07 | 0.19 | 0.10 | 99 | 1005.1 |
| 20260506173402 | 56 | 178 | 0.0 | 0.0 | 0.07 | 0.19 | 0.10 | 99 | 1005.1 |
| 20260506173301 | 56 | 178 | 0.0 | 0.0 | 0.07 | 0.19 | 0.10 | 99 | 1005.1 |
| 20260506173201 | 56 | 178 | 0.0 | 0.0 | 0.07 | 0.19 | 0.10 | 99 | 1005.1 |
| 20260506173100 | 56 | 178 | 0.0 | 0.0 | 0.06 | 0.18 | 0.10 | 99 | 1005.1 |
| 20260506173000 | 56 | 178 | 0.0 | 0.0 | 0.06 | 0.18 | 0.09 | 99 | 1005.1 |
| 20260506172858 | 56 | 178 | 0.0 | 0.0 | 0.06 | 0.18 | 0.09 | 99 | 1005.3 |
| 20260506172758 | 56 | 178 | 0.0 | 0.0 | 0.06 | 0.18 | 0.09 | 99 | 1005.3 |
| 20260506172656 | 56 | 178 | 0.0 | 0.0 | 0.06 | 0.18 | 0.09 | 99 | 1005.3 |
| 20260506172554 | 56 | 178 | 0.0 | 0.0 | 0.06 | 0.18 | 0.09 | 98 | 1005.3 |
| 20260506172454 | 56 | 178 | 0.0 | 0.0 | 0.05 | 0.17 | 0.09 | 99 | 1005.4 |
| 20260506172352 | 56 | 178 | 0.0 | 0.0 | 0.06 | 0.17 | 0.08 | 98 | 1005.4 |
| 20260506172252 | 56 | 178 | 0.0 | 0.0 | 0.06 | 0.17 | 0.08 | 98 | 1005.5 |
| 20260506172151 | 56 | 178 | 0.0 | 0.0 | 0.06 | 0.17 | 0.08 | 98 | 1005.5 |
| 20260506172050 | 56 | 178 | 0.0 | 0.0 | 0.06 | 0.17 | 0.08 | 98 | 1005.5 |
| 20260506172021 | 56 | 178 | 0.0 | 0.0 | 0.06 | 0.17 | 0.08 | 98 | 1005.5 |
| 20260506171842 | 56 | 178 | 0.0 | 0.0 | 0.06 | 0.17 | 0.08 | 98 | 1005.5 |
| 20260506171741 | 56 | 178 | 0.0 | 0.0 | 0.06 | 0.17 | 0.08 | 98 | 1005.5 |
| 20260506171640 | 56 | 178 | 0.0 | 0.0 | 0.06 | 0.17 | 0.08 | 98 | 1005.5 |
| 20260506171538 | 56 | 178 | 0.0 | 0.0 | 0.06 | 0.17 | 0.08 | 98 | 1005.5 |
| 20260506171437 | 56 | 178 | 0.0 | 0.0 | 0.05 | 0.16 | 0.08 | 98 | 1005.6 |
| 20260506171336 | 56 | 178 | 0.0 | 0.0 | 0.05 | 0.16 | 0.07 | 98 | 1005.5 |
| 20260506171235 | 56 | 178 | 0.0 | 0.0 | 0.05 | 0.16 | 0.07 | 98 | 1005.5 |
| 20260506171134 | 56 | 178 | 0.0 | 0.0 | 0.05 | 0.16 | 0.07 | 98 | 1005.6 |
| 20260506171032 | 56 | 178 | 0.0 | 0.0 | 0.05 | 0.16 | 0.07 | 98 | 1005.6 |
| 20260506170934 | 56 | 178 | 0.0 | 0.0 | 0.04 | 0.15 | 0.07 | 98 | 1005.6 |
| 20260506170833 | 56 | 178 | 0.0 | 0.0 | 0.04 | 0.15 | 0.06 | 98 | 1005.6 |
| 20260506170733 | 56 | 178 | 0.0 | 0.0 | 0.04 | 0.15 | 0.06 | 98 | 1005.6 |
| 20260506170633 | 56 | 178 | 0.0 | 0.0 | 0.04 | 0.15 | 0.06 | 98 | 1005.6 |
| 20260506170531 | 56 | 178 | 0.0 | 0.0 | 0.04 | 0.15 | 0.06 | 98 | 1005.6 |
| 20260506170430 | 56 | 178 | 0.0 | 0.0 | 0.04 | 0.15 | 0.06 | 98 | 1005.6 |
| 20260506170330 | 56 | 178 | 0.0 | 0.0 | 0.04 | 0.15 | 0.06 | 98 | 1005.6 |
| 20260506170232 | 56 | 178 | 0.0 | 0.0 | 0.04 | 0.14 | 0.06 | 98 | 1005.6 |
| 20260506170131 | 56 | 178 | 0.0 | 0.0 | 0.04 | 0.14 | 0.05 | 98 | 1005.6 |
| 20260506170030 | 56 | 178 | 0.0 | 0.0 | 0.04 | 0.14 | 0.05 | 98 | 1005.6 |
| 20260506165928 | 56 | 178 | 0.0 | 0.0 | 0.04 | 0.14 | 0.05 | 98 | 1005.6 |
| 20260506165830 | 56 | 178 | 0.0 | 0.0 | 0.04 | 0.14 | 0.05 | 98 | 1005.7 |
| 20260506165730 | 56 | 178 | 0.0 | 0.0 | 0.04 | 0.14 | 0.05 | 98 | 1005.6 |
| 20260506165629 | 56 | 178 | 0.0 | 0.0 | 0.04 | 0.14 | 0.05 | 98 | 1005.6 |
| 20260506165540 | 56 | 178 | 0.0 | 0.0 | 0.04 | 0.14 | 0.05 | 98 | 1005.5 |
| 20260506165519 | 56 | 178 | 0.0 | 0.0 | 0.04 | 0.14 | 0.05 | 97 | 1005.5 |
| 20260506165326 | 56 | 178 | 0.0 | 0.0 | 0.04 | 0.14 | 0.05 | 98 | 1005.5 |
| 20260506165223 | 56 | 178 | 0.0 | 0.0 | 0.03 | 0.13 | 0.05 | 98 | 1005.5 |
| 20260506165120 | 56 | 178 | 0.0 | 0.0 | 0.03 | 0.13 | 0.05 | 98 | 1005.6 |
| 20260506165038 | 56 | 178 | 0.0 | 0.0 | 0.03 | 0.13 | 0.04 | 98 | 1005.6 |
| 20260506165018 | 56 | 178 | 0.0 | 0.0 | 0.03 | 0.13 | 0.04 | 98 | 1005.6 |
| 20260506164820 | 56 | 178 | 0.0 | 0.0 | 0.03 | 0.13 | 0.04 | 97 | 1005.6 |
| 20260506164717 | 56 | 178 | 0.0 | 0.0 | 0.03 | 0.13 | 0.04 | 97 | 1005.6 |
| 20260506164610 | 56 | 178 | 0.0 | 0.0 | 0.03 | 0.13 | 0.04 | 97 | 1005.6 |
| 20260506164511 | 56 | 178 | 0.0 | 0.0 | 0.03 | 0.13 | 0.04 | 97 | 1005.6 |
| 20260506164308 | 56 | 178 | 0.0 | 0.0 | 0.03 | 0.13 | 0.04 | 97 | 1005.7 |
| 20260506164210 | 56 | 178 | 0.0 | 0.0 | 0.02 | 0.12 | 0.03 | 98 | 1005.7 |
| 20260506164110 | 56 | 178 | 0.0 | 0.0 | 0.02 | 0.12 | 0.03 | 97 | 1005.7 |
| 20260506164033 | 56 | 178 | 0.0 | 0.0 | 0.02 | 0.12 | 0.03 | 97 | 1005.7 |
| 20260506164013 | 56 | 178 | 0.0 | 0.0 | 0.02 | 0.12 | 0.03 | 97 | 1005.7 |
| 20260506163809 | 56 | 178 | 0.0 | 0.0 | 0.02 | 0.12 | 0.03 | 97 | 1005.7 |
| 20260506163710 | 56 | 178 | 0.0 | 0.0 | 0.02 | 0.12 | 0.03 | 97 | 1005.7 |
| 20260506163609 | 56 | 178 | 0.0 | 0.0 | 0.02 | 0.12 | 0.03 | 97 | 1005.7 |
| 20260506163507 | 56 | 178 | 0.0 | 0.0 | 0.03 | 0.12 | 0.03 | 97 | 1005.7 |
| 20260506163406 | 56 | 178 | 0.0 | 0.0 | 0.03 | 0.12 | 0.03 | 98 | 1005.7 |
| 20260506163305 | 56 | 178 | 0.0 | 0.0 | 0.03 | 0.12 | 0.03 | 97 | 1005.7 |
| 20260506163205 | 56 | 178 | 0.0 | 0.0 | 0.03 | 0.12 | 0.03 | 97 | 1005.8 |
| 20260506163105 | 56 | 178 | 0.0 | 0.0 | 0.03 | 0.12 | 0.03 | 97 | 1005.8 |
| 20260506163029 | 56 | 178 | 0.0 | 0.0 | 0.03 | 0.12 | 0.03 | 97 | 1005.8 |
| 20260506162905 | 56 | 178 | 0.0 | 0.0 | 0.03 | 0.12 | 0.03 | 97 | 1005.8 |
| 20260506162802 | 56 | 178 | 0.0 | 0.0 | 0.03 | 0.12 | 0.03 | 97 | 1005.8 |
| 20260506162704 | 56 | 178 | 0.0 | 0.0 | 0.03 | 0.12 | 0.03 | 97 | 1005.8 |
| 20260506162601 | 56 | 178 | 0.0 | 0.0 | 0.03 | 0.12 | 0.03 | 97 | 1005.8 |
| 20260506162459 | 56 | 178 | 0.0 | 0.0 | 0.03 | 0.12 | 0.03 | 97 | 1005.8 |
| 20260506162359 | 56 | 178 | 0.0 | 0.0 | 0.02 | 0.11 | 0.03 | 97 | 1005.8 |
| 20260506162256 | 56 | 178 | 0.0 | 0.0 | 0.02 | 0.11 | 0.02 | 97 | 1005.8 |
| 20260506162158 | 56 | 178 | 0.0 | 0.0 | 0.02 | 0.11 | 0.02 | 96 | 1005.8 |
| 20260506162055 | 56 | 178 | 0.0 | 0.0 | 0.02 | 0.11 | 0.02 | 96 | 1005.8 |
| 20260506162018 | 56 | 178 | 0.0 | 0.0 | 0.02 | 0.11 | 0.02 | 97 | 1005.8 |
| 20260506161850 | 56 | 178 | 0.0 | 0.0 | 0.02 | 0.11 | 0.02 | 97 | 1005.9 |
| 20260506161747 | 56 | 178 | 0.0 | 0.0 | 0.02 | 0.11 | 0.02 | 96 | 1005.9 |
| 20260506161650 | 56 | 178 | 0.0 | 0.0 | 0.02 | 0.11 | 0.02 | 96 | 1005.9 |
| 20260506161549 | 56 | 178 | 0.0 | 0.0 | 0.02 | 0.11 | 0.02 | 97 | 1006.0 |
| 20260506161448 | 56 | 178 | 0.0 | 0.0 | 0.02 | 0.11 | 0.02 | 97 | 1006.0 |
| 20260506161347 | 56 | 178 | 0.0 | 0.0 | 0.02 | 0.11 | 0.02 | 97 | 1006.1 |
| 20260506161244 | 56 | 178 | 0.0 | 0.0 | 0.02 | 0.11 | 0.02 | 97 | 1006.1 |
| 20260506161144 | 56 | 178 | 0.0 | 0.0 | 0.02 | 0.11 | 0.02 | 97 | 1006.1 |
| 20260506161043 | 56 | 178 | 0.0 | 0.0 | 0.02 | 0.11 | 0.02 | 96 | 1006.1 |
| 20260506160942 | 56 | 178 | 0.0 | 0.0 | 0.02 | 0.11 | 0.02 | 96 | 1006.1 |
| 20260506160843 | 56 | 178 | 0.0 | 0.0 | 0.02 | 0.11 | 0.02 | 96 | 1006.2 |
| 20260506160744 | 56 | 178 | 0.0 | 0.0 | 0.02 | 0.11 | 0.02 | 96 | 1006.2 |
| 20260506160640 | 56 | 178 | 0.0 | 0.0 | 0.02 | 0.11 | 0.02 | 96 | 1006.3 |
| 20260506160540 | 56 | 178 | 0.0 | 0.0 | 0.02 | 0.11 | 0.02 | 96 | 1006.3 |
| 20260506160442 | 56 | 178 | 0.0 | 0.0 | 0.02 | 0.11 | 0.02 | 96 | 1006.2 |
| 20260506160339 | 56 | 178 | 0.0 | 0.0 | 0.02 | 0.11 | 0.02 | 96 | 1006.3 |
| 20260506160237 | 56 | 178 | 0.0 | 0.0 | 0.01 | 0.10 | 0.01 | 96 | 1006.4 |
| 20260506160136 | 56 | 178 | 0.0 | 0.0 | 0.01 | 0.10 | 0.01 | 96 | 1006.4 |
| 20260506160036 | 56 | 178 | 0.0 | 0.0 | 0.01 | 0.10 | 0.01 | 95 | 1006.4 |
| 20260506155935 | 56 | 178 | 0.0 | 0.0 | 0.01 | 0.10 | 0.01 | 95 | 1006.4 |
| 20260506155832 | 56 | 178 | 0.0 | 0.0 | 0.01 | 0.10 | 0.01 | 95 | 1006.5 |
| 20260506155734 | 56 | 178 | 0.0 | 0.0 | 0.01 | 0.10 | 0.01 | 95 | 1006.6 |
| 20260506155628 | 56 | 178 | 0.0 | 0.0 | 0.01 | 0.10 | 0.01 | 95 | 1006.6 |
| 20260506155530 | 56 | 178 | 0.0 | 0.0 | 0.01 | 0.10 | 0.01 | 95 | 1006.6 |
| 20260506155428 | 56 | 178 | 0.0 | 0.0 | 0.01 | 0.10 | 0.01 | 95 | 1006.6 |
| 20260506155328 | 56 | 178 | 0.0 | 0.0 | 0.01 | 0.10 | 0.01 | 95 | 1006.6 |
| 20260506155230 | 56 | 178 | 0.0 | 1.0 | 0.01 | 0.10 | 0.01 | 95 | 1006.6 |
| 20260506155129 | 56 | 178 | 0.0 | 1.0 | 0.01 | 0.10 | 0.01 | 95 | 1006.6 |
| 20260506155025 | 56 | 178 | 0.0 | 1.0 | 0.01 | 0.10 | 0.01 | 95 | 1006.7 |
| 20260506154926 | 57 | 178 | 0.0 | 1.0 | 0.01 | 0.10 | 0.01 | 94 | 1006.7 |
| 20260506154827 | 57 | 178 | 0.0 | 1.0 | 0.01 | 0.10 | 0.01 | 94 | 1006.7 |
| 20260506154727 | 57 | 178 | 0.0 | 2.0 | 0.01 | 0.10 | 0.01 | 95 | 1006.8 |
| 20260506154627 | 57 | 178 | 0.0 | 2.0 | 0.01 | 0.10 | 0.01 | 95 | 1006.8 |
| 20260506154527 | 57 | 178 | 0.0 | 2.0 | 0.01 | 0.10 | 0.01 | 94 | 1006.9 |
| 20260506154504 | 57 | 178 | 0.0 | 2.0 | 0.01 | 0.10 | 0.01 | 94 | 1006.9 |
| 20260506154318 | 57 | 178 | 0.0 | 2.0 | 0.01 | 0.10 | 0.01 | 94 | 1006.9 |
| 20260506154218 | 57 | 178 | 0.0 | 2.0 | 0.01 | 0.10 | 0.01 | 94 | 1006.9 |
| 20260506154119 | 57 | 178 | 0.0 | 2.0 | 0.01 | 0.10 | 0.01 | 94 | 1007.0 |
| 20260506154018 | 57 | 178 | 0.0 | 2.0 | 0.01 | 0.10 | 0.01 | 94 | 1006.9 |
| 20260506153911 | 57 | 178 | 0.0 | 2.0 | 0.01 | 0.10 | 0.01 | 94 | 1007.0 |
| 20260506153810 | 57 | 178 | 0.0 | 2.0 | 0.01 | 0.10 | 0.01 | 94 | 1007.0 |
| 20260506153710 | 57 | 178 | 0.0 | 0.0 | 0.01 | 0.10 | 0.01 | 94 | 1007.0 |
| 20260506153609 | 57 | 178 | 0.0 | 0.0 | 0.01 | 0.10 | 0.01 | 94 | 1007.0 |
| 20260506153510 | 57 | 178 | 0.0 | 0.0 | 0.00 | 0.09 | 0.01 | 93 | 1007.0 |
| 20260506153411 | 57 | 178 | 0.0 | 0.0 | 0.00 | 0.09 | 0.00 | 93 | 1006.9 |
| 20260506153312 | 57 | 178 | 0.0 | 0.0 | 0.00 | 0.09 | 0.00 | 93 | 1006.9 |
| 20260506153208 | 57 | 178 | 0.0 | 0.0 | 0.00 | 0.09 | 0.00 | 93 | 1006.9 |
| 20260506153106 | 57 | 178 | 0.0 | 0.0 | 0.00 | 0.09 | 0.00 | 93 | 1006.9 |
| 20260506153006 | 57 | 178 | 0.0 | 0.0 | 0.00 | 0.09 | 0.00 | 92 | 1006.9 |
| 20260506152906 | 57 | 178 | 0.0 | 1.0 | 0.00 | 0.09 | 0.00 | 92 | 1006.9 |
| 20260506152806 | 57 | 178 | 0.0 | 1.0 | 0.00 | 0.09 | 0.00 | 92 | 1006.9 |
| 20260506152706 | 57 | 178 | 0.0 | 1.0 | 0.00 | 0.09 | 0.00 | 92 | 1006.9 |
| 20260506152608 | 57 | 178 | 0.0 | 1.0 | 0.00 | 0.09 | 0.00 | 92 | 1006.9 |
| 20260506152502 | 57 | 178 | 0.0 | 1.0 | 0.00 | 0.09 | 0.00 | 92 | 1006.9 |
| 20260506152402 | 57 | 178 | 0.0 | 1.0 | 0.00 | 0.09 | 0.00 | 92 | 1007.0 |
| 20260506152305 | 57 | 178 | 0.0 | 1.0 | 0.00 | 0.09 | 0.00 | 92 | 1007.0 |
| 20260506152202 | 57 | 178 | 0.0 | 1.0 | 0.00 | 0.09 | 0.00 | 92 | 1007.0 |
| 20260506152104 | 57 | 178 | 0.0 | 1.0 | 0.00 | 0.09 | 0.00 | 91 | 1006.9 |
| 20260506152003 | 57 | 178 | 0.0 | 1.0 | 0.00 | 0.09 | 0.00 | 91 | 1006.9 |
| 20260506151902 | 57 | 178 | 0.0 | 1.0 | 0.00 | 0.09 | 0.00 | 92 | 1006.9 |
| 20260506151804 | 57 | 178 | 0.0 | 1.0 | 0.00 | 0.09 | 0.00 | 91 | 1006.9 |
| 20260506151703 | 57 | 178 | 0.0 | 1.0 | 0.00 | 0.09 | 0.00 | 91 | 1006.8 |
| 20260506151602 | 57 | 178 | 0.0 | 1.0 | 0.00 | 0.09 | 0.00 | 91 | 1006.8 |
| 20260506151502 | 57 | 178 | 0.0 | 1.0 | 0.00 | 0.09 | 0.00 | 91 | 1006.8 |
| 20260506151404 | 57 | 178 | 0.0 | 1.0 | 0.00 | 0.09 | 0.00 | 91 | 1006.8 |
| 20260506151302 | 57 | 178 | 0.0 | 1.0 | 0.00 | 0.09 | 0.00 | 90 | 1006.8 |
| 20260506151202 | 57 | 178 | 0.0 | 1.0 | 0.00 | 0.09 | 0.00 | 91 | 1006.8 |
| 20260506151103 | 57 | 178 | 0.0 | 0.0 | 0.00 | 0.09 | 0.00 | 91 | 1006.7 |
| 20260506151003 | 57 | 178 | 0.0 | 0.0 | 0.00 | 0.09 | 0.00 | 91 | 1006.8 |
| 20260506150902 | 57 | 178 | 0.0 | 0.0 | 0.00 | 0.09 | 0.00 | 90 | 1006.7 |
| 20260506150803 | 57 | 178 | 0.0 | 0.0 | 0.00 | 0.09 | 0.00 | 90 | 1006.7 |
| 20260506150702 | 57 | 178 | 0.0 | 0.0 | 0.00 | 0.09 | 0.00 | 90 | 1006.7 |
| 20260506150602 | 57 | 178 | 0.0 | 0.0 | 0.00 | 0.09 | 0.00 | 90 | 1006.8 |
| 20260506150503 | 57 | 178 | 0.0 | 0.0 | 0.00 | 0.09 | 0.00 | 90 | 1006.7 |
| 20260506150402 | 57 | 178 | 0.0 | 0.0 | 0.00 | 0.09 | 0.00 | 90 | 1006.8 |
| 20260506150304 | 57 | 178 | 0.0 | 0.0 | 0.00 | 0.09 | 0.00 | 90 | 1006.7 |
| 20260506150204 | 57 | 178 | 0.0 | 0.0 | 0.00 | 0.09 | 0.00 | 90 | 1006.8 |
| 20260506150004 | 57 | 178 | 0.0 | 0.0 | 0.00 | 0.09 | 0.00 | 90 | 1006.9 |
| 20260506145752 | 57 | 178 | 0.0 | 0.0 | 0.00 | 0.09 | 0.00 | 91 | 1006.9 |
| 20260506145652 | 57 | 178 | 0.0 | 0.0 | 0.00 | 0.09 | 0.00 | 90 | 1006.9 |
| 20260506145550 | 57 | 178 | 0.0 | 0.0 | 0.00 | 0.09 | 0.00 | 90 | 1006.9 |
| 20260506145451 | 57 | 178 | 0.0 | 0.0 | 0.00 | 0.09 | 0.00 | 90 | 1006.9 |
| 20260506145252 | 57 | 178 | 0.0 | 0.0 | 0.00 | 0.09 | 0.00 | 90 | 1006.9 |
| 20260506145150 | 57 | 178 | 0.0 | 3.0 | 0.00 | 0.09 | 0.00 | 90 | 1006.9 |
| 20260506145051 | 57 | 178 | 0.0 | 3.0 | 0.00 | 0.09 | 0.00 | 90 | 1006.9 |
| 20260506144950 | 57 | 178 | 0.0 | 3.0 | 0.00 | 0.09 | 0.00 | 90 | 1006.9 |
| 20260506144749 | 57 | 178 | 0.0 | 3.0 | 0.00 | 0.09 | 0.00 | 90 | 1007.0 |
| 20260506144650 | 57 | 178 | 0.0 | 3.0 | 0.00 | 0.09 | 0.00 | 90 | 1007.0 |
| 20260506144551 | 57 | 178 | 0.0 | 3.0 | 0.00 | 0.09 | 0.00 | 90 | 1007.0 |
| 20260506144450 | 57 | 178 | 0.0 | 3.0 | 0.00 | 0.09 | 0.00 | 90 | 1006.9 |
| 20260506144251 | 57 | 178 | 0.0 | 3.0 | 0.00 | 0.09 | 0.00 | 89 | 1007.0 |
| 20260506144151 | 57 | 169 | 0.0 | 1.0 | 0.00 | 0.09 | 0.00 | 89 | 1007.0 |
| 20260506144051 | 57 | 203 | 0.0 | 0.0 | 0.00 | 0.09 | 0.00 | 89 | 1007.0 |
| 20260506143950 | 57 | 203 | 0.0 | 0.0 | 0.00 | 0.09 | 0.00 | 89 | 1007.0 |
| 20260506143750 | 57 | 200 | 0.0 | 0.0 | 0.00 | 0.09 | 0.00 | 89 | 1007.0 |
| 20260506143652 | 57 | 175 | 0.0 | 0.0 | 0.00 | 0.09 | 0.00 | 89 | 1006.9 |
| 20260506143551 | 57 | 175 | 0.0 | 0.0 | 0.00 | 0.09 | 0.00 | 89 | 1006.9 |
| 20260506143450 | 57 | 175 | 0.0 | 0.0 | 0.00 | 0.09 | 0.00 | 90 | 1006.9 |
| 20260506143252 | 57 | 175 | 0.0 | 1.0 | 0.00 | 0.09 | 0.00 | 89 | 1006.9 |
| 20260506143148 | 57 | 175 | 0.0 | 4.0 | 0.00 | 0.09 | 0.00 | 89 | 1007.0 |
| 20260506143050 | 57 | 175 | 0.0 | 4.0 | 0.00 | 0.09 | 0.00 | 89 | 1007.0 |
| 20260506143012 | 57 | 175 | 0.0 | 4.0 | 0.00 | 0.09 | 0.00 | 89 | 1007.0 |
| 20260506142950 | 57 | 180 | 0.0 | 4.0 | 0.00 | 0.09 | 0.00 | 90 | 1007.0 |
| 20260506142733 | 57 | 180 | 0.0 | 4.0 | 0.00 | 0.09 | 0.00 | 90 | 1007.0 |
| 20260506142630 | 57 | 180 | 0.0 | 4.0 | 0.00 | 0.09 | 0.00 | 89 | 1007.0 |
| 20260506142531 | 57 | 180 | 0.0 | 4.0 | 0.00 | 0.09 | 0.00 | 90 | 1006.9 |
| 20260506142430 | 57 | 177 | 1.0 | 4.0 | 0.00 | 0.09 | 0.00 | 89 | 1006.9 |
| 20260506142227 | 57 | 180 | 1.0 | 4.0 | 0.00 | 0.09 | 0.00 | 90 | 1006.9 |
| 20260506142128 | 57 | 146 | 1.0 | 3.0 | 0.00 | 0.09 | 0.00 | 90 | 1006.9 |
| 20260506142029 | 57 | 146 | 1.0 | 3.0 | 0.00 | 0.09 | 0.00 | 90 | 1006.9 |
| 20260506141927 | 57 | 146 | 1.0 | 3.0 | 0.00 | 0.09 | 0.00 | 90 | 1006.9 |
| 20260506141719 | 57 | 146 | 1.0 | 3.0 | 0.00 | 0.09 | 0.00 | 89 | 1006.9 |
| 20260506141618 | 57 | 147 | 1.0 | 3.0 | 0.00 | 0.09 | 0.00 | 89 | 1006.9 |
| 20260506141518 | 57 | 134 | 0.0 | 3.0 | 0.00 | 0.09 | 0.00 | 90 | 1006.9 |
| 20260506141420 | 57 | 128 | 0.0 | 3.0 | 0.00 | 0.09 | 0.00 | 90 | 1006.8 |
| 20260506141217 | 57 | 113 | 0.0 | 3.0 | 0.00 | 0.09 | 0.00 | 90 | 1006.9 |
| 20260506141109 | 57 | 62 | 0.0 | 2.0 | 0.00 | 0.09 | 0.00 | 90 | 1006.8 |
| 20260506141009 | 57 | 65 | 0.0 | 4.0 | 0.00 | 0.09 | 0.00 | 90 | 1006.9 |
| 20260506140910 | 57 | 156 | 0.0 | 4.0 | 0.00 | 0.09 | 0.00 | 90 | 1006.9 |
| 20260506140705 | 57 | 153 | 0.0 | 4.0 | 0.00 | 0.09 | 0.00 | 91 | 1006.9 |
| 20260506140602 | 57 | 153 | 0.0 | 4.0 | 0.00 | 0.09 | 0.00 | 90 | 1006.9 |
| 20260506140503 | 57 | 153 | 0.0 | 4.0 | 0.00 | 0.09 | 0.00 | 90 | 1006.9 |
| 20260506140402 | 57 | 153 | 0.0 | 4.0 | 0.00 | 0.09 | 0.00 | 90 | 1006.8 |
| 20260506140159 | 57 | 153 | 1.0 | 4.0 | 0.00 | 0.09 | 0.00 | 89 | 1006.8 |
| 20260506140057 | 57 | 153 | 0.0 | 4.0 | 0.00 | 0.09 | 0.00 | 89 | 1006.8 |
| 20260506135957 | 57 | 176 | 0.0 | 3.0 | 0.00 | 0.09 | 0.00 | 89 | 1006.8 |
| 20260506135856 | 57 | 257 | 0.0 | 3.0 | 0.00 | 0.09 | 0.00 | 90 | 1006.8 |
| 20260506135645 | 57 | 182 | 0.0 | 3.0 | 0.00 | 0.09 | 0.00 | 90 | 1006.8 |
| 20260506135547 | 57 | 175 | 0.0 | 3.0 | 0.00 | 0.09 | 0.00 | 91 | 1006.8 |
| 20260506135446 | 57 | 179 | 0.0 | 3.0 | 0.00 | 0.09 | 0.00 | 91 | 1006.8 |
| 20260506135344 | 57 | 179 | 0.0 | 4.0 | 0.00 | 0.09 | 0.00 | 91 | 1006.8 |
| 20260506135141 | 57 | 185 | 0.0 | 4.0 | 0.00 | 0.09 | 0.00 | 91 | 1006.8 |
| 20260506135040 | 57 | 188 | 0.0 | 4.0 | 0.00 | 0.09 | 0.00 | 91 | 1006.9 |
| 20260506134940 | 57 | 199 | 0.0 | 4.0 | 0.00 | 0.09 | 0.00 | 91 | 1006.9 |
| 20260506134839 | 57 | 199 | 0.0 | 4.0 | 0.00 | 0.09 | 0.00 | 91 | 1006.8 |
| 20260506134632 | 57 | 140 | 0.0 | 4.0 | 0.00 | 0.09 | 0.00 | 91 | 1006.9 |
| 20260506134532 | 57 | 140 | 0.0 | 4.0 | 0.00 | 0.09 | 0.00 | 91 | 1006.9 |
| 20260506134431 | 57 | 141 | 0.0 | 4.0 | 0.00 | 0.09 | 0.00 | 91 | 1006.9 |
| 20260506134330 | 57 | 151 | 0.0 | 3.0 | 0.00 | 0.09 | 0.00 | 91 | 1007.0 |
| 20260506134119 | 56 | 151 | 0.0 | 3.0 | 0.00 | 0.09 | 0.00 | 92 | 1007.0 |
| 20260506134021 | 56 | 151 | 1.0 | 5.0 | 0.00 | 0.09 | 0.00 | 91 | 1007.0 |
| 20260506133921 | 56 | 151 | 1.0 | 5.0 | 0.00 | 0.09 | 0.00 | 91 | 1007.0 |
| 20260506133819 | 56 | 151 | 1.0 | 5.0 | 0.00 | 0.09 | 0.00 | 91 | 1007.1 |
| 20260506133620 | 56 | 151 | 0.0 | 5.0 | 0.00 | 0.09 | 0.00 | 92 | 1007.1 |
| 20260506133518 | 56 | 151 | 0.0 | 5.0 | 0.00 | 0.09 | 0.00 | 92 | 1007.1 |
| 20260506133417 | 56 | 151 | 0.0 | 5.0 | 0.00 | 0.09 | 0.00 | 92 | 1007.1 |
| 20260506133316 | 56 | 151 | 0.0 | 5.0 | 0.00 | 0.09 | 0.00 | 92 | 1007.1 |
| 20260506133110 | 56 | 151 | 0.0 | 4.0 | 0.00 | 0.09 | 0.00 | 92 | 1007.1 |
| 20260506133007 | 56 | 151 | 0.0 | 2.0 | 0.00 | 0.09 | 0.00 | 92 | 1007.1 |
| 20260506132909 | 56 | 151 | 0.0 | 2.0 | 0.00 | 0.09 | 0.00 | 92 | 1007.2 |
| 20260506132832 | 56 | 151 | 0.0 | 2.0 | 0.00 | 0.09 | 0.00 | 92 | 1007.3 |
| 20260506132813 | 56 | 151 | 0.0 | 2.0 | 0.00 | 0.09 | 0.00 | 92 | 1007.3 |
| 20260506132558 | 56 | 151 | 0.0 | 2.0 | 0.00 | 0.09 | 0.00 | 91 | 1007.3 |
| 20260506132459 | 56 | 151 | 0.0 | 2.0 | 0.00 | 0.09 | 0.00 | 91 | 1007.2 |
| 20260506132358 | 56 | 151 | 0.0 | 2.0 | 0.00 | 0.09 | 0.00 | 92 | 1007.3 |
| 20260506132257 | 56 | 151 | 0.0 | 2.0 | 0.00 | 0.09 | 0.00 | 92 | 1007.3 |
| 20260506132055 | 56 | 151 | 0.0 | 2.0 | 0.00 | 0.09 | 0.00 | 91 | 1007.2 |
| 20260506131953 | 56 | 151 | 0.0 | 2.0 | 0.00 | 0.09 | 0.00 | 91 | 1007.3 |
| 20260506131853 | 56 | 151 | 0.0 | 2.0 | 0.00 | 0.09 | 0.00 | 91 | 1007.3 |
| 20260506131749 | 56 | 151 | 0.0 | 2.0 | 0.00 | 0.09 | 0.00 | 91 | 1007.2 |
| 20260506131549 | 56 | 151 | 0.0 | 1.0 | 0.00 | 0.09 | 0.00 | 92 | 1007.1 |
| 20260506131448 | 56 | 151 | 0.0 | 2.0 | 0.00 | 0.09 | 0.00 | 92 | 1007.1 |
| 20260506131344 | 56 | 151 | 0.0 | 2.0 | 0.00 | 0.09 | 0.00 | 92 | 1007.1 |
| 20260506131309 | 56 | 151 | 0.0 | 3.0 | 0.00 | 0.09 | 0.00 | 92 | 1007.2 |
| 20260506131247 | 56 | 151 | 0.0 | 3.0 | 0.00 | 0.09 | 0.00 | 91 | 1007.3 |
| 20260506131036 | 56 | 151 | 0.0 | 3.0 | 0.00 | 0.09 | 0.00 | 91 | 1007.3 |
| 20260506130935 | 56 | 151 | 0.0 | 3.0 | 0.00 | 0.09 | 0.00 | 92 | 1007.3 |
| 20260506130837 | 56 | 151 | 0.0 | 3.0 | 0.00 | 0.09 | 0.00 | 92 | 1007.3 |